GFSSGP_con_mlcape_000.txt.gz
CAPE
0 0 0 0 0 0 0 1 0 0 0 0 0 0 0 0 0 0 0 3 3 0 0 31 6 0 0 0 1 4 5 0 0 2 1 0 0 0 0 0 0 0 0 0 0 0 0 1 6
0 0 0 0 0 3 0 2 0 0 0 0 0 0 0 0 0 0 0 0 0 0 0 27 60 39 36 18 64 130 91 116 138 164 59 190 71 6 0 0 2 3 2 0 0 0 0 0 0
0 0 0 12 30 0 0 3 0 0 0 0 0 0 0 0 0 0 0 0 0 0 0 0 108 85 62 59 193 211 233 265 395 543 342 217 65 42 17 51 56 18 24 18 4 0 0 0 2
0 0 0 2 0 0 0 0 0 0 0 0 0 0 0 0 0 0 0 6 0 0 0 35 254 179 280 268 340 322 336 766 681 587 381 180 26 6 50 8 7 4 8 8 40 3 0 2 3
0 0 0 0 0 3 0 0 0 0 0 0 0 0 0 0 0 0 0 0 0 23 74 432 380 324 292 456 586 849 1178 876 738 562 419 117 42 27 45 11 4 10 8 9 70 60 23 1 4
0 0 0 0 0 0 0 0 0 0 0 0 0 0 0 0 0 0 0 0 9 87 452 604 435 216 110 347 208 58 49 138 179 82 52 35 29 35 42 23 1 1 3 16 82 80 92 18 66
0 0 0 0 0 0 0 0 0 0 0 0 0 0 0 0 0 0 0 0 30 208 169 174 297 223 56 0 0 0 0 0 0 0 0 0 0 0 1 1 2 4 7 15 30 63 110 84 72
0 0 0 0 0 0 0 0 0 0 0 0 0 0 0 0 0 0 0 0 0 0 2 12 13 6 0 0 0 0 0 0 0 0 0 0 0 0 0 2 6 11 9 10 12 15 94 106 78
0 0 0 0 0 0 0 0 0 0 0 0 0 0 0 0 0 0 0 0 0 0 0 0 0 0 0 0 1 0 0 0 0 0 0 0 0 0 0 0 10 28 46 3 4 99 100 108 98
0 0 0 0 0 0 0 0 0 0 0 0 0 0 0 0 0 0 0 0 0 0 0 0 0 0 0 0 0 8 0 0 0 0 0 0 0 0 0 0 6 6 110 93 165 196 205 276 59
0 0 0 0 0 0 0 0 0 0 0 0 0 0 0 0 0 0 0 0 0 0 0 0 0 0 0 0 0 0 0 0 0 0 0 0 0 0 0 0 0 0 7 12 109 236 375 235 119
0 0 0 0 0 0 0 0 0 0 0 0 0 0 0 0 0 0 0 0 0 0 0 0 0 0 0 0 0 0 0 0 0 0 0 0 0 0 0 1 3 15 33 1 65 91 156 208 280
0 0 0 0 0 0 0 0 0 0 0 0 0 0 0 0 0 0 0 0 0 0 0 0 0 0 0 0 0 0 0 0 0 0 0 0 0 0 2 38 46 13 19 0 0 72 147 231 251
0 0 0 0 0 0 0 0 0 0 0 0 0 0 0 0 0 0 0 0 0 0 0 0 0 0 0 0 0 0 0 0 0 0 0 0 0 4 25 6 24 6 0 0 0 42 64 139 127
0 0 0 0 0 0 0 0 0 0 0 0 0 0 0 0 0 0 0 0 0 0 0 0 0 0 0 0 0 0 0 0 0 0 0 0 0 13 6 1 3 1 0 0 0 13 44 66 71
0 0 0 0 0 0 0 0 0 0 0 0 0 0 0 0 0 0 0 0 0 0 0 0 0 0 0 0 0 4 6 0 0 0 0 0 0 4 0 0 2 0 0 0 0 26 69 77 52
0 0 0 0 0 0 0 0 0 0 0 0 0 0 0 0 0 0 0 0 0 0 0 0 0 0 0 0 10 3 0 0 0 7 0 1 0 0 0 0 8 0 0 0 0 28 89 91 82
0 0 0 0 0 0 0 0 0 0 0 0 0 0 0 0 0 0 0 0 0 0 0 0 0 8 9 25 0 0 0 8 31 40 20 4 0 0 0 4 8 0 0 0 0 10 7 21 50
0 0 0 0 0 0 0 0 0 0 0 0 0 0 0 0 0 0 0 0 0 0 0 0 0 5 10 0 5 0 0 0 4 30 30 24 3 0 0 27 6 7 0 0 0 0 0 0 45
0 0 0 0 0 0 0 0 0 0 0 0 0 0 0 0 0 0 0 0 0 0 0 0 4 5 19 0 9 9 0 0 19 38 36 28 25 34 12 34 20 2 0 0 0 0 14 20 66
0 0 0 0 0 0 0 0 0 0 0 0 0 0 0 0 0 0 0 0 0 0 0 4 14 16 1 6 7 0 0 1 7 22 18 7 2 5 34 30 19 0 0 0 0 10 41 91 123
0 0 0 0 0 0 0 0 0 0 0 0 0 0 0 0 0 0 0 0 0 0 0 1 4 4 0 0 0 0 28 14 0 0 0 2 4 4 36 7 3 3 0 0 0 38 34 38 91
0 0 0 0 0 0 0 0 0 0 0 0 0 0 0 0 0 0 0 0 0 0 0 0 5 0 0 0 0 56 2 0 0 0 0 4 28 45 37 11 23 11 42 21 47 21 20 46 21
0 0 0 0 0 0 0 0 0 0 0 0 0 0 0 0 0 0 0 0 0 0 0 0 0 0 1 24 0 0 0 0 0 0 0 2 7 33 19 51 14 16 32 43 16 29 36 0 84
0 0 0 0 0 0 0 0 0 0 0 0 0 0 0 0 0 0 0 0 0 0 0 0 0 0 0 0 0 0 0 0 0 0 0 0 0 1 3 32 49 14 87 70 38 3 33 0 89
0 0 0 0 0 0 0 0 0 0 0 0 0 0 0 0 0 0 0 0 0 0 0 0 0 0 0 0 0 0 0 0 0 0 0 0 0 0 0 2 29 47 86 140 93 108 117 5 24
0 0 0 0 0 0 0 0 0 0 0 0 0 0 0 0 0 0 0 0 0 0 0 0 0 0 0 0 0 0 0 0 0 0 0 0 0 0 0 0 0 47 116 74 114 153 120 161 181
0 0 0 0 0 0 0 0 0 0 0 0 0 0 0 0 0 0 0 0 0 0 0 0 0 0 0 0 0 12 9 5 2 0 0 0 0 0 0 0 29 41 107 119 97 62 167 154 119
0 0 0 0 0 0 0 0 0 0 0 0 0 0 0 0 0 0 0 0 0 0 0 0 0 0 0 0 0 8 32 30 19 0 0 0 0 0 0 16 78 110 109 106 57 82 112 92 99
0 0 0 0 0 0 0 0 0 0 0 0 0 0 0 0 0 0 0 0 0 0 0 0 0 0 0 0 0 1 18 10 0 0 0 0 0 0 0 15 67 90 85 46 53 39 0 10 39

GFSSGP_con_mlcape_003.txt.gz
CAPE
0 0 0 0 0 0 0 0 0 0 0 0 0 0 0 0 0 0 0 11 0 0 0 137 134 8 0 0 0 0 0 0 0 0 0 0 0 0 0 0 2 0 0 0 0 0 0 0 1
0 0 0 0 0 0 0 0 0 0 0 0 0 0 0 0 0 0 2 18 0 0 0 20 59 5 0 0 0 7 1 0 0 0 0 0 0 0 0 0 3 4 5 2 1 0 0 0 0
0 0 0 0 0 0 0 0 0 0 0 0 0 0 0 0 0 0 0 1 0 0 0 0 100 37 9 42 80 60 96 55 71 19 44 34 187 76 40 0 4 17 24 16 10 2 0 0 0
0 0 0 0 0 0 11 3 0 0 0 0 0 0 0 0 0 0 0 0 0 0 0 14 119 86 213 302 253 252 214 225 250 259 461 366 196 75 36 71 78 51 17 19 23 44 1 0 3
0 0 0 0 0 0 0 0 0 0 0 0 0 0 0 0 0 0 0 5 0 0 4 33 271 363 388 396 279 223 165 231 650 647 640 438 220 99 62 67 62 44 6 9 20 27 94 24 0
0 0 0 0 0 0 0 0 0 0 0 0 0 0 0 0 0 0 5 6 7 0 36 157 594 429 446 348 385 258 174 656 769 622 414 245 156 120 90 76 43 17 11 15 17 25 89 68 0
0 0 0 0 0 0 0 0 0 0 0 0 0 0 0 0 0 0 1 11 13 43 143 321 641 559 469 449 448 302 76 6 101 29 0 0 0 0 0 0 1 3 12 22 28 62 76 70 67
0 0 0 0 0 0 0 0 0 0 0 0 0 0 0 0 0 0 0 16 59 218 297 496 448 446 485 620 280 145 20 29 0 0 0 0 0 0 0 1 4 7 8 11 17 13 76 83 63
0 0 0 0 0 0 0 0 0 0 0 0 0 0 0 0 0 0 0 0 18 183 340 397 231 222 219 115 259 253 136 0 0 0 0 0 0 0 0 0 0 5 11 12 2 9 57 86 101
0 0 0 0 0 0 0 0 0 0 0 0 0 0 0 0 0 0 0 0 0 10 36 115 142 75 77 41 57 74 0 0 0 0 0 0 0 0 0 0 5 20 27 34 85 76 76 87 66
0 0 0 0 0 0 0 0 0 0 0 0 0 0 0 0 0 0 0 0 0 0 0 32 55 50 12 1 0 20 0 0 0 0 0 0 0 0 0 0 0 0 0 1 0 8 121 133 65
0 0 0 0 0 0 0 0 0 0 0 0 0 0 0 0 0 0 0 0 0 0 0 0 2 0 0 0 0 0 0 0 0 0 0 0 0 0 0 0 0 1 3 3 0 10 58 84 88
0 0 0 0 0 0 0 0 0 0 0 0 0 0 0 0 0 0 0 0 0 0 0 0 0 0 0 0 0 0 0 0 0 0 0 0 0 0 0 0 5 13 20 23 2 0 6 20 73
0 0 0 0 0 0 0 0 0 0 0 0 0 0 0 0 0 0 0 0 0 0 0 0 0 0 0 0 0 0 0 0 0 0 0 0 0 0 0 7 5 5 4 2 0 1 12 35 46
0 0 0 0 0 0 0 0 0 0 0 0 0 0 0 0 0 0 0 0 0 0 0 0 0 0 0 0 0 0 0 0 0 0 0 0 0 0 0 8 0 0 0 0 0 0 3 22 4
0 0 0 0 0 0 0 0 0 0 0 0 0 0 0 0 0 0 0 0 0 0 0 0 0 0 0 0 3 0 0 0 0 0 0 0 0 0 0 8 0 0 0 0 0 0 0 1 0
0 0 0 0 0 0 0 0 0 0 0 0 0 0 0 0 0 0 0 0 0 0 0 0 0 0 0 0 5 1 0 0 0 0 0 0 0 2 0 0 0 0 0 0 0 0 0 1 1
0 0 0 0 0 0 0 0 0 0 0 0 0 0 0 0 0 0 0 0 0 0 0 0 0 0 0 15 9 0 0 0 0 1 0 2 8 2 0 0 0 0 0 0 0 0 10 53 60
0 0 0 0 0 0 0 0 0 0 0 0 0 0 0 0 0 0 0 0 0 0 0 0 0 0 7 14 0 0 0 0 0 1 18 18 8 0 0 0 2 0 0 0 0 0 5 24 43
0 0 0 0 0 0 0 0 0 0 0 0 0 0 0 0 0 0 0 0 0 0 0 0 0 0 5 0 0 0 0 0 0 0 31 41 18 6 3 0 9 0 0 0 0 0 0 0 2
0 0 0 0 0 0 0 0 0 0 0 0 0 0 0 0 0 0 0 0 0 0 0 0 0 0 0 0 0 0 0 0 0 0 0 5 0 0 31 10 2 0 0 0 0 0 5 5 6
0 0 0 0 0 0 0 0 0 0 0 0 0 0 0 0 0 0 0 0 0 0 0 0 0 0 0 0 0 0 0 0 0 0 0 2 2 23 14 13 0 0 0 0 0 1 9 14 45
0 0 0 0 0 0 0 0 0 0 0 0 0 0 0 0 0 0 0 0 0 0 0 0 0 0 0 0 0 0 0 0 0 0 0 0 8 21 13 8 0 0 0 0 0 0 0 10 22
0 0 0 0 0 0 0 0 0 0 0 0 0 0 0 0 0 0 0 0 0 0 0 0 0 0 0 0 0 0 0 0 0 0 0 0 0 34 9 9 1 5 5 4 4 0 0 0 13
0 0 0 0 0 0 0 0 0 0 0 0 0 0 0 0 0 0 0 0 0 0 0 0 0 0 0 5 0 0 0 0 0 0 0 0 0 1 5 1 1 8 45 26 10 1 0 0 13
0 0 0 0 0 0 0 0 0 0 0 0 0 0 0 0 0 0 0 0 0 0 0 0 0 0 0 0 0 0 0 0 0 0 0 0 0 0 0 0 0 13 70 84 38 8 9 0 5
0 0 0 0 0 0 0 0 0 0 0 0 0 0 0 0 0 0 0 0 0 0 0 0 0 0 0 0 0 0 0 0 0 0 0 0 0 0 0 0 0 31 65 47 56 64 38 6 22
0 0 0 0 0 0 0 0 0 0 0 0 0 0 0 0 0 0 0 0 0 0 0 0 0 0 0 0 0 0 5 0 0 0 0 0 0 0 0 0 0 2 46 57 65 64 67 63 78
0 0 0 0 0 0 0 0 0 0 0 0 0 0 0 0 0 0 0 0 0 0 0 0 0 0 0 0 0 3 1 0 0 0 0 0 0 0 0 0 1 16 39 69 53 57 67 63 50
0 0 0 0 0 0 0 0 0 0 0 0 0 0 0 0 0 0 0 0 0 0 0 0 0 0 0 0 0 4 0 0 0 0 0 0 0 0 0 0 29 49 36 47 45 48 62 60 20

GFSSGP_con_mlcape_006.txt.gz
CAPE
0 0 0 0 0 0 0 0 0 0 0 0 0 0 0 0 0 0 0 6 0 0 0 105 130 42 0 0 0 0 0 0 0 0 0 0 0 0 0 0 0 0 0 0 0 0 0 0 0
0 0 0 0 0 0 0 0 0 0 0 0 0 0 0 0 0 0 0 3 0 0 0 10 52 21 0 0 0 0 0 0 0 0 0 0 0 0 0 0 1 6 11 4 0 0 0 0 0
0 0 0 0 0 0 0 0 0 0 0 0 0 0 0 0 0 0 0 0 0 0 2 9 33 75 53 36 0 14 39 11 0 0 0 0 0 6 39 0 0 4 16 63 21 8 0 1 1
0 0 0 0 0 0 0 0 0 0 0 0 0 0 0 0 0 0 0 5 0 0 28 34 122 149 143 104 78 152 166 150 126 75 52 84 158 129 53 21 32 28 59 12 11 31 78 6 0
0 0 0 0 0 0 0 0 0 0 0 0 0 0 0 0 0 0 0 22 10 25 69 115 228 239 219 201 217 241 248 232 329 325 228 441 334 255 154 85 60 57 56 24 17 13 13 76 51
0 0 0 0 0 0 0 0 0 0 0 0 0 0 0 0 0 0 0 3 15 29 75 92 344 274 327 287 432 456 357 324 354 625 617 642 478 366 201 116 81 72 40 4 9 17 12 35 76
0 0 0 0 0 0 0 0 0 0 0 0 0 0 0 0 0 0 0 0 6 15 39 77 358 470 411 601 727 543 316 375 572 656 480 338 173 19 0 0 5 24 33 20 17 20 28 34 36
0 0 0 0 0 0 0 0 0 0 0 0 0 0 0 0 0 0 0 0 11 31 44 76 260 485 694 978 868 610 520 461 113 144 60 0 0 0 0 0 0 4 7 6 9 4 2 11 32
0 0 0 0 0 0 0 0 0 0 0 0 0 0 0 0 0 0 0 2 24 76 115 184 328 477 582 758 811 929 435 229 182 31 0 0 0 0 0 0 0 0 1 7 8 3 3 3 9
0 0 0 0 0 0 0 0 0 0 0 0 0 0 0 0 0 0 0 0 2 53 159 250 354 425 460 540 575 478 271 209 18 0 0 0 0 0 0 0 0 1 14 20 32 50 17 25 3
0 0 0 0 0 0 0 0 0 0 0 0 0 0 0 0 0 0 0 0 0 18 149 256 426 385 349 230 95 258 51 1 0 0 0 0 0 0 0 0 0 0 0 0 0 0 6 31 32
0 0 0 0 0 0 0 0 0 0 0 0 0 0 0 0 0 0 0 0 0 0 43 192 408 259 143 57 12 0 0 0 0 0 0 0 0 0 0 0 0 0 0 0 4 0 1 26 45
0 0 0 0 0 0 0 0 0 0 0 0 0 0 0 0 0 0 0 0 0 0 0 80 147 118 45 2 0 0 0 0 0 0 0 0 0 0 0 0 0 0 3 8 10 14 4 21 44
0 0 0 0 0 0 0 0 0 0 0 0 0 0 0 0 0 0 0 0 0 0 0 0 23 8 8 0 0 0 0 0 0 0 0 0 0 0 0 0 0 0 0 3 0 1 1 1 5
0 0 0 0 0 0 0 0 0 0 0 0 0 0 0 0 0 0 0 0 0 0 0 0 0 0 0 0 0 0 0 0 0 0 0 0 0 0 0 0 0 0 0 0 0 0 0 0 0
0 0 0 0 0 0 0 0 0 0 0 0 0 0 0 0 0 0 0 0 0 0 0 0 0 0 0 0 0 0 0 0 0 0 0 0 0 0 0 0 2 0 0 0 0 0 0 0 0
0 0 0 0 0 0 0 0 0 0 0 0 0 0 0 0 0 0 0 0 0 0 0 0 0 0 0 0 0 0 1 1 0 0 0 0 0 0 0 0 0 0 0 0 0 0 0 0 0
0 0 0 0 0 0 0 0 0 0 0 0 0 0 0 0 0 0 0 0 0 0 0 0 0 0 0 0 0 3 1 0 0 0 0 0 0 2 2 0 0 0 0 0 0 0 0 3 0
0 0 0 0 0 0 0 0 0 0 0 0 0 0 0 0 0 0 0 0 0 0 0 0 0 0 0 0 2 0 3 0 0 0 0 0 7 7 0 0 0 0 0 0 0 0 0 13 14
0 0 0 0 0 0 0 0 0 0 0 0 0 0 0 0 0 0 0 0 0 0 0 0 0 0 0 0 0 0 0 0 0 0 5 8 7 0 0 0 0 0 0 0 0 0 0 1 46
0 0 0 0 0 0 0 0 0 0 0 0 0 0 0 0 0 0 0 0 0 0 0 0 0 0 0 1 0 0 0 0 0 0 0 0 0 3 1 4 0 0 0 0 0 0 0 0 8
0 0 0 0 0 0 0 0 0 0 0 0 0 0 0 0 0 0 0 0 0 0 0 0 0 0 0 0 0 0 0 0 0 0 0 0 0 5 0 1 0 0 0 0 0 0 3 5 35
0 0 0 0 0 0 0 0 0 0 0 0 0 0 0 0 0 0 0 0 0 0 0 0 0 0 0 0 0 0 0 0 0 0 0 0 0 10 0 0 0 0 0 0 0 0 0 10 25
0 0 0 0 0 0 0 0 0 0 0 0 0 0 0 0 0 0 0 0 0 0 0 0 0 0 0 0 0 0 0 0 0 0 0 0 0 20 0 0 0 0 0 0 0 0 0 1 4
0 0 0 0 0 0 0 0 0 0 0 0 0 0 0 0 0 0 0 0 0 0 0 0 0 0 0 0 0 0 0 0 0 0 0 0 0 10 0 0 0 0 0 13 13 5 0 0 0
0 0 0 0 0 0 0 0 0 0 0 0 0 0 0 0 0 0 0 0 0 0 0 0 0 0 0 0 0 0 0 0 0 0 0 0 0 0 0 0 0 19 43 19 28 17 0 0 0
0 0 0 0 0 0 0 0 0 0 0 0 0 0 0 0 0 0 0 0 0 0 0 0 0 0 0 0 0 0 0 0 0 0 0 0 0 0 0 0 4 29 37 42 40 35 30 0 1
0 0 0 0 0 0 0 0 0 0 0 0 0 0 0 0 0 0 0 0 0 0 0 0 0 0 0 0 0 0 0 0 0 0 0 0 0 0 0 0 5 14 36 35 30 50 46 19 27
0 0 0 0 0 0 0 0 0 0 0 0 0 0 0 0 0 0 0 0 0 0 0 0 0 0 0 0 0 1 1 0 0 0 0 0 0 0 0 0 0 0 7 40 33 27 29 22 31
0 0 0 0 0 0 0 0 0 0 0 0 0 0 0 0 0 0 0 0 0 0 0 0 0 0 0 0 0 1 2 0 0 0 0 0 0 0 0 0 4 2 13 26 18 21 15 7 8

GFSSGP_con_mlcape_009.txt.gz
CAPE
0 0 0 0 0 0 0 0 0 0 0 0 0 0 0 0 0 0 0 0 0 0 0 67 128 35 0 0 0 0 0 0 0 0 0 0 0 0 0 0 0 0 0 0 0 0 0 0 0
0 0 0 0 0 0 0 0 0 0 0 0 0 0 0 0 0 0 0 5 0 0 0 36 114 26 0 0 0 0 0 0 0 0 0 0 0 0 0 0 0 0 0 0 2 8 5 0 0
0 0 0 0 0 0 0 0 0 0 0 0 0 0 0 0 0 0 0 2 0 0 5 53 118 27 17 7 0 0 1 0 0 0 0 0 0 0 0 0 0 0 0 0 7 16 13 3 0
0 0 0 0 0 0 0 0 0 0 0 0 0 0 0 0 0 0 0 4 0 0 77 130 127 95 84 67 69 109 64 8 0 0 12 4 10 34 94 158 136 52 10 5 28 2 2 112 33
0 0 0 0 0 0 0 0 0 0 0 0 0 0 0 0 0 0 17 39 1 0 71 243 313 221 180 207 261 226 125 61 100 184 194 193 228 273 339 346 163 133 88 63 24 3 1 3 66
0 0 0 0 0 0 0 0 0 0 0 0 0 0 0 0 0 0 31 83 40 41 22 342 470 375 335 373 454 425 332 335 397 397 448 435 571 554 443 340 304 251 173 98 67 15 4 26 25
0 0 0 0 0 0 0 0 0 0 0 0 0 0 0 0 0 0 14 105 104 134 122 312 630 649 584 536 531 613 543 475 538 598 671 669 640 503 244 39 7 4 20 65 75 24 12 43 56
0 0 0 0 0 0 0 0 0 0 0 0 0 0 0 0 0 0 10 55 69 162 248 345 540 829 801 762 859 720 677 565 522 776 900 450 133 0 0 0 0 0 0 1 1 2 6 9 14
0 0 0 0 0 0 0 0 0 0 0 0 0 0 0 0 0 0 6 42 58 116 265 335 454 819 864 763 999 1043 871 690 804 632 313 29 0 0 0 0 0 0 0 3 5 2 7 13 10
0 0 0 0 0 0 0 0 0 0 0 0 0 0 0 0 0 0 6 9 33 81 138 247 403 683 830 911 1071 1072 909 576 502 395 119 89 107 21 0 0 0 0 0 6 17 49 23 74 25
0 0 0 0 0 0 0 0 0 0 0 0 0 0 0 0 0 0 0 15 10 102 172 232 426 628 771 902 1019 1015 722 570 547 200 89 66 15 0 0 0 0 0 0 0 1 0 0 9 49
0 0 0 0 0 0 0 0 0 0 0 0 0 0 0 0 0 0 0 1 35 67 148 296 454 513 697 789 687 553 406 300 121 119 97 94 38 0 0 0 0 0 0 0 5 3 3 34 70
0 0 0 0 0 0 0 0 0 0 0 0 0 0 0 0 0 0 0 0 3 23 70 305 430 448 637 558 408 261 197 77 41 70 35 28 12 1 0 0 0 0 0 20 45 45 42 69 102
0 0 0 0 0 0 0 0 0 0 0 0 0 0 0 0 0 0 0 0 0 0 12 81 315 548 542 298 160 82 62 14 30 19 18 0 0 0 0 0 4 14 32 49 63 46 57 49 85
0 0 0 0 0 0 0 0 0 0 0 0 0 0 0 0 0 0 0 0 0 0 0 15 224 460 351 173 87 3 0 7 22 25 30 0 0 0 19 43 49 39 36 14 48 65 63 69 71
0 0 0 0 0 0 0 0 0 0 0 0 0 0 0 0 0 0 0 0 0 0 0 0 28 202 207 107 0 0 0 21 21 41 45 5 5 48 87 87 82 80 30 8 53 51 36 24 34
0 0 0 0 0 0 0 0 0 0 0 0 0 0 0 0 0 0 0 0 0 0 0 0 0 44 57 4 0 0 12 18 37 50 51 41 42 62 66 119 108 80 51 33 65 61 37 13 19
0 0 0 0 0 0 0 0 0 0 0 0 0 0 0 0 0 0 0 0 0 0 0 0 0 10 1 0 0 0 13 35 52 72 69 93 98 97 74 89 73 76 59 62 82 52 30 33 49
0 0 0 0 0 0 0 0 0 0 0 0 0 0 0 0 0 0 0 0 0 0 0 0 0 0 0 0 0 2 28 61 78 77 95 162 224 160 157 118 61 1 27 120 107 58 21 33 112
0 0 0 0 0 0 0 0 0 0 0 0 0 0 0 0 0 0 0 0 0 0 0 0 0 0 0 0 0 40 82 110 103 103 143 254 268 224 128 41 25 9 89 122 94 45 31 44 199
0 0 0 0 0 0 0 0 0 0 0 0 0 0 0 0 0 0 0 0 0 0 0 0 0 0 0 0 0 10 15 7 50 59 104 124 79 51 93 74 72 144 161 124 85 68 62 121 224
0 0 0 0 0 0 0 0 0 0 0 0 0 0 0 0 0 0 0 0 0 0 0 0 0 0 0 0 0 11 83 82 5 31 33 55 0 67 130 167 153 211 223 148 103 134 171 152 135
0 0 0 0 0 0 0 0 0 0 0 0 0 0 0 0 0 0 0 0 0 0 0 0 0 0 0 0 3 48 80 0 0 4 0 26 54 99 92 171 200 229 174 227 107 72 120 145 142
0 0 0 0 0 0 0 0 0 0 0 0 0 0 0 0 0 0 0 0 0 0 0 0 0 0 0 2 14 95 27 0 0 0 17 27 57 78 194 80 157 213 206 197 74 124 153 260 125
0 0 0 0 0 0 0 0 0 0 0 0 0 0 0 0 0 0 0 0 0 0 0 0 0 0 0 4 11 15 3 0 0 0 5 27 32 32 133 99 98 129 206 138 143 95 111 155 164
0 0 0 0 0 0 0 0 0 0 0 0 0 0 0 0 0 0 0 0 0 0 0 0 0 0 0 3 32 0 0 0 0 0 0 0 19 58 62 61 102 167 193 205 193 215 132 92 81
0 0 0 0 0 0 0 0 0 0 0 0 0 0 0 0 0 0 0 0 0 0 0 0 0 0 0 2 0 0 0 0 0 0 0 2 2 16 42 78 72 124 202 198 312 326 195 123 101
0 0 0 0 0 0 0 0 0 0 0 0 0 0 0 0 0 0 0 0 0 0 0 0 0 0 0 0 0 0 0 0 0 0 0 2 0 17 24 33 108 203 282 336 299 174 192 188 157
0 0 0 0 0 0 0 0 0 0 0 0 0 0 0 0 0 0 0 0 0 0 0 0 0 0 0 0 0 1 1 0 0 0 0 0 0 0 3 22 50 89 190 166 96 97 78 83 123
0 0 0 0 0 0 0 0 0 0 0 0 0 0 0 0 0 0 0 0 0 0 0 0 0 0 0 0 0 6 9 5 0 0 0 0 0 0 0 42 52 68 144 64 52 23 13 36 77

GFSSGP_con_mlcape_012.txt.gz
CAPE
0 0 0 0 0 0 0 0 0 0 0 0 0 0 0 0 0 0 1 80 52 0 49 95 95 10 0 0 0 0 0 0 0 0 0 0 0 0 0 0 0 0 0 0 0 0 0 0 0
0 0 0 0 0 0 0 0 0 0 0 0 0 0 0 0 0 0 0 60 52 0 51 82 158 57 3 0 0 0 0 0 0 0 0 0 0 0 0 0 0 0 0 0 0 11 2 4 0
0 0 0 0 0 0 22 0 0 0 0 0 0 0 0 0 0 0 57 125 44 0 22 129 181 87 56 0 0 0 0 0 0 0 0 0 0 0 0 0 0 0 0 1 1 58 76 3 3
0 0 0 0 0 0 68 2 0 0 0 0 0 0 0 0 0 0 69 131 64 0 0 136 287 152 81 25 0 0 0 0 0 0 0 2 0 0 4 12 52 115 66 8 3 54 42 13 115
0 0 0 0 0 0 0 9 10 0 0 0 0 0 0 0 0 0 37 98 56 21 45 120 344 302 128 104 73 44 24 64 88 43 44 84 93 131 220 273 387 373 199 163 132 80 5 26 20
0 0 0 0 0 0 0 0 0 0 0 0 0 0 0 0 0 0 35 104 89 55 111 276 763 670 254 208 211 181 164 225 142 126 165 286 375 537 521 558 503 437 373 271 198 141 115 31 4
0 0 0 0 0 0 0 0 0 0 0 0 0 0 0 0 0 0 32 71 126 96 99 347 793 1039 600 379 418 379 280 261 257 282 486 567 708 825 630 557 207 74 31 74 134 183 139 53 41
0 0 0 0 0 0 0 0 0 0 0 0 0 0 3 11 0 3 36 47 92 139 157 155 539 884 566 494 862 656 519 466 516 666 750 746 942 573 36 0 0 0 0 0 4 8 14 25 31
0 0 0 0 0 0 0 0 0 0 0 0 0 0 0 0 0 12 36 80 91 124 194 189 336 718 610 419 789 1077 942 936 914 813 823 754 121 18 77 6 0 0 0 0 1 3 4 0 0
0 0 0 0 0 0 0 0 0 0 0 0 0 0 1 0 0 8 26 22 93 155 141 323 495 706 682 334 580 1140 746 647 548 369 384 426 123 230 88 0 0 0 0 0 1 5 46 51 24
0 0 0 0 0 0 0 0 0 0 0 0 0 0 11 2 0 0 14 24 37 79 161 253 528 863 786 504 739 1021 698 694 638 623 458 254 250 261 172 64 11 4 2 3 5 23 22 40 28
0 0 0 0 0 0 0 0 0 0 0 0 0 0 0 0 0 1 10 21 19 46 116 265 409 979 1057 663 849 722 632 651 511 427 431 346 337 293 262 65 10 10 8 1 11 22 17 27 30
0 0 0 0 0 0 0 0 0 0 0 0 0 0 0 0 0 0 0 4 5 28 80 304 534 958 1140 1006 894 709 519 415 299 144 300 456 315 303 290 127 49 13 33 8 13 27 28 25 42
0 0 0 0 0 0 0 0 0 0 0 0 0 0 0 0 0 0 0 0 3 21 96 336 625 968 1159 1173 941 775 561 342 299 78 303 446 369 301 341 170 73 16 25 28 11 36 28 45 50
0 0 0 0 0 0 0 0 0 0 0 0 0 0 0 0 0 0 0 0 0 31 61 374 687 1023 1267 1232 1029 640 400 319 78 240 511 508 499 393 432 335 217 118 180 92 34 20 37 28 46
0 0 0 0 0 0 0 0 0 0 0 0 0 0 0 0 0 0 0 0 0 44 58 278 506 942 1352 1122 884 390 189 89 115 335 410 561 568 559 495 327 308 277 274 228 82 29 45 34 37
0 0 0 0 0 0 0 0 0 0 0 0 0 0 0 0 0 0 0 0 0 52 100 184 405 853 1218 1008 583 287 170 150 259 365 414 455 558 565 380 285 339 327 200 176 65 44 53 34 24
0 0 0 0 0 0 0 0 0 0 0 0 0 0 0 0 0 0 0 0 0 27 61 65 370 751 1030 703 326 95 117 193 340 407 420 512 551 493 428 299 427 204 220 116 38 50 111 71 38
0 0 0 0 0 0 0 0 0 0 0 0 0 0 0 0 0 0 0 0 0 0 0 50 253 612 513 279 45 17 24 159 306 385 581 578 551 494 369 354 300 307 138 47 76 160 131 81 87
0 0 0 0 0 0 0 0 0 0 0 0 0 0 0 0 0 0 0 0 0 0 9 99 279 442 242 41 3 15 53 157 236 373 598 585 545 423 345 336 376 242 34 81 171 155 104 80 135
0 0 0 0 0 0 0 0 0 0 0 0 0 0 0 0 0 0 0 0 0 0 42 144 258 245 45 43 154 340 432 362 223 379 410 460 470 368 346 312 255 190 154 221 233 192 113 121 237
0 0 0 0 0 0 0 0 0 0 0 0 0 0 0 0 0 0 0 0 0 2 19 115 157 121 136 135 28 30 7 28 137 236 238 298 291 161 223 330 311 276 368 305 219 222 226 292 383
0 0 0 0 0 0 0 0 0 0 0 0 0 0 0 0 0 0 0 0 0 0 9 73 106 119 164 91 59 115 120 134 216 127 295 280 279 238 174 347 319 376 352 325 326 249 324 420 469
0 0 0 0 0 0 0 0 0 0 0 0 0 0 0 0 0 0 0 0 0 0 16 52 95 101 133 120 213 258 452 349 160 145 144 176 232 323 238 231 297 379 346 351 326 304 317 447 486
0 0 0 0 0 0 0 0 0 0 0 0 0 0 0 1 0 0 0 0 0 0 0 23 29 75 79 109 184 457 554 452 339 207 132 196 185 271 236 274 382 410 453 448 298 291 328 414 511
0 0 0 0 0 0 0 0 0 0 0 0 0 0 0 7 0 0 0 0 0 0 0 0 16 23 39 41 208 370 503 133 80 112 53 118 148 123 232 291 332 373 405 504 496 386 314 314 342
0 0 0 0 0 0 0 0 0 0 0 0 0 0 0 0 0 0 0 0 0 0 0 11 8 0 0 40 341 343 377 122 123 126 68 93 166 65 177 259 244 231 224 513 529 552 361 370 402
0 0 0 0 0 0 0 0 0 0 0 0 0 0 0 1 0 0 0 0 0 0 17 15 2 0 10 224 247 258 215 241 133 68 5 89 89 42 118 161 306 367 405 494 539 466 426 409 378
0 0 0 0 0 0 0 0 0 0 0 0 0 0 0 0 0 0 0 0 0 7 36 39 0 1 19 153 186 172 189 206 104 52 8 30 64 52 65 64 139 151 310 545 474 312 352 346 308
0 0 0 0 0 0 0 0 0 0 0 0 0 6 5 0 0 0 0 0 0 15 13 0 0 0 12 51 92 160 98 191 95 24 23 8 20 14 28 47 19 37 271 378 149 87 88 174 151

GFSSGP_con_mlcape_015.txt.gz
CAPE
0 0 0 0 0 0 0 0 0 0 1 0 0 0 0 0 0 0 0 15 5 11 153 33 12 0 0 0 0 0 0 0 0 0 0 0 0 0 0 0 0 0 0 0 0 0 0 0 0
0 0 0 0 0 0 0 0 4 7 4 0 0 0 0 0 0 0 12 48 14 19 180 59 49 25 10 0 0 0 0 0 0 0 0 0 0 0 0 0 0 0 0 0 0 1 10 4 0
0 0 0 0 0 0 34 38 7 1 0 0 0 0 0 0 0 0 32 60 32 0 311 130 106 73 56 20 0 0 0 0 0 0 0 0 0 0 0 0 0 0 10 1 2 1 67 117 18
0 0 0 0 0 0 7 63 47 7 25 0 0 0 0 0 0 0 4 72 47 19 208 300 260 107 89 72 0 0 0 0 0 0 0 0 0 0 5 7 20 37 89 106 64 23 36 96 3
0 0 0 0 0 0 13 0 67 63 47 11 0 0 0 0 0 0 10 59 72 39 53 527 362 146 144 105 34 15 0 0 0 0 0 8 19 43 45 99 180 305 346 314 157 191 123 81 32
0 0 0 0 0 0 0 0 0 0 8 11 4 0 0 0 0 0 4 50 65 59 39 111 638 365 205 220 129 57 14 0 7 62 72 95 155 256 394 511 575 597 514 414 291 189 234 177 47
0 0 0 0 0 0 0 0 0 0 5 4 0 0 0 36 1 0 5 27 56 72 27 88 1160 910 553 455 408 196 98 21 75 128 141 237 297 520 738 799 658 492 228 83 61 108 180 196 143
0 0 0 3 0 0 6 0 0 0 1 7 0 0 0 40 3 0 0 8 28 68 65 80 345 1392 973 550 873 554 254 137 165 159 284 451 515 702 694 375 0 0 0 0 0 5 24 69 111
0 0 0 0 0 0 0 2 1 4 0 0 0 0 0 0 0 8 3 0 16 41 79 103 126 580 904 389 593 873 700 493 484 437 581 528 293 228 502 256 44 1 0 0 0 0 0 1 4
0 0 0 0 0 3 3 3 6 5 11 0 0 0 0 12 4 17 0 0 5 40 67 122 237 371 805 449 355 1097 640 626 608 463 379 837 473 287 333 261 26 0 0 0 0 0 0 7 0
0 0 0 1 7 0 15 9 12 13 20 7 0 0 0 0 11 15 0 0 0 0 71 146 454 589 755 638 366 1159 915 708 741 711 643 593 380 344 509 443 390 234 90 97 14 15 45 11 17
0 0 0 0 2 0 1 4 14 13 19 1 0 0 0 0 2 5 0 0 0 36 15 113 316 926 1144 641 404 623 1010 777 689 775 890 694 416 499 577 390 309 232 98 64 15 16 21 47 19
0 0 0 0 0 0 4 0 0 0 0 0 0 0 0 0 0 0 0 0 0 15 14 41 429 1154 1493 1460 582 801 826 657 743 533 543 584 470 552 501 509 349 296 113 65 37 20 61 55 45
0 0 0 0 0 0 2 0 0 0 0 0 0 0 0 0 0 0 0 0 0 6 20 55 493 1100 1588 1563 1362 1228 1090 661 599 398 247 485 714 558 495 569 418 252 149 92 104 6 14 35 39
0 0 0 0 0 0 2 0 0 0 0 0 0 0 0 0 0 0 0 0 0 0 33 230 659 1216 1671 1905 1610 1312 943 680 519 399 239 479 744 688 690 510 593 493 302 376 279 209 76 29 39
0 1 0 0 0 0 15 0 0 0 0 0 0 0 0 0 0 0 0 0 0 10 97 312 521 1253 1912 1931 1757 1330 808 702 283 207 340 757 829 778 697 655 695 534 549 440 160 164 109 17 25
0 0 0 0 0 6 29 0 0 0 0 0 0 0 0 0 0 0 0 0 0 5 171 383 727 920 1877 2008 1708 1319 896 485 211 234 401 488 702 698 644 666 720 647 598 464 274 128 143 51 31
0 0 0 0 0 8 16 5 6 0 0 0 0 0 0 0 0 0 0 0 0 48 222 616 814 1145 1862 1845 1619 965 532 409 224 353 414 501 668 577 689 709 809 616 496 388 230 171 157 83 117
0 0 0 0 0 1 0 2 23 1 0 0 0 0 0 0 0 0 0 7 62 87 417 721 792 1214 1792 1590 1099 570 334 322 289 372 472 674 701 595 661 815 700 376 356 377 237 199 104 153 151
0 0 0 0 0 4 0 10 5 1 0 0 0 0 0 0 0 0 0 223 138 300 421 462 719 1303 1584 1196 678 326 281 230 350 360 497 707 652 659 570 626 643 588 473 355 160 189 210 171 170
0 0 0 0 0 0 1 0 0 0 0 0 0 0 0 0 0 0 0 284 231 321 422 502 736 1284 1099 647 383 235 277 418 455 183 367 693 536 547 565 532 459 457 398 249 238 301 234 186 218
0 0 0 0 0 0 0 0 0 0 0 0 0 0 0 0 0 0 0 342 339 392 483 606 900 868 474 307 370 494 337 135 135 357 228 516 393 302 233 340 427 437 370 465 405 303 228 168 238
0 0 0 0 0 0 0 0 0 0 0 0 0 0 0 0 0 0 49 336 348 388 499 657 691 427 340 351 302 267 100 78 212 65 354 564 554 324 317 312 333 400 536 495 513 452 357 393 457
0 0 0 0 0 0 0 0 0 0 0 0 0 0 0 0 0 17 331 324 339 329 482 552 466 389 369 220 298 318 294 216 109 241 391 436 487 534 470 225 305 405 591 508 385 425 398 661 684
0 0 0 0 0 0 0 0 0 0 0 0 0 0 0 13 134 227 253 269 263 335 388 421 350 396 250 223 283 323 398 473 481 390 211 390 310 504 409 226 389 486 570 521 380 314 440 611 730
0 0 0 0 0 0 0 0 0 0 0 0 0 0 63 198 206 214 227 255 280 316 285 206 284 241 170 196 193 264 336 249 131 236 221 128 374 376 232 339 456 612 510 438 336 375 381 373 518
0 0 0 0 0 0 0 0 0 0 0 0 0 0 77 281 304 283 267 253 244 224 177 198 213 163 150 118 209 208 313 184 439 399 155 135 285 65 168 281 455 376 388 551 587 532 373 427 549
0 0 0 0 0 0 0 0 0 0 0 0 0 0 28 303 310 259 248 239 214 157 138 187 157 144 60 113 166 203 270 275 258 255 166 23 151 34 122 256 422 445 436 612 476 823 662 649 613
0 0 0 0 0 0 0 0 0 0 5 0 0 6 239 336 282 243 210 209 203 154 200 229 121 29 26 127 86 192 140 221 122 119 41 77 9 6 35 52 135 139 508 483 546 468 466 465 524
0 0 0 0 0 0 4 1 0 0 1 34 91 214 362 282 233 193 183 205 170 203 238 187 23 0 25 52 117 75 94 269 254 66 7 20 13 8 36 58 49 75 346 390 254 169 162 301 294

GFSSGP_con_mlcape_021.txt.gz
CAPE
0 0 0 0 0 0 0 0 0 0 1 0 0 0 0 0 0 0 4 63 39 0 0 0 0 0 0 0 0 0 0 0 0 0 0 0 0 0 0 0 0 0 0 0 0 0 0 0 0
0 0 0 0 0 0 0 0 0 3 3 0 0 0 0 1 0 0 0 80 33 3 0 0 0 0 0 0 0 0 0 0 0 0 0 0 0 0 0 0 0 0 0 0 0 0 0 0 0
0 0 0 0 0 0 0 0 19 4 0 0 0 0 0 0 7 1 19 133 107 24 4 0 0 0 0 0 0 0 0 0 0 0 0 0 0 0 0 0 0 0 0 0 0 6 0 0 108
0 0 0 0 0 0 0 0 1 5 0 0 0 0 0 0 0 0 165 144 130 53 0 0 0 0 0 0 0 0 0 0 0 0 0 0 0 0 0 0 0 0 0 6 70 89 92 66 58
0 0 0 0 0 0 0 0 37 0 8 16 13 0 0 0 5 3 64 111 25 32 0 0 0 0 0 0 0 0 0 0 0 0 0 0 0 0 1 5 20 24 86 176 238 317 329 274 185
0 0 0 0 0 0 0 0 0 44 0 0 0 7 0 0 0 0 0 14 33 19 4 41 0 0 0 0 0 0 0 0 0 0 0 0 0 0 13 42 104 226 371 447 397 371 385 314 238
0 0 0 0 0 0 0 0 0 0 0 0 0 0 0 0 0 0 0 0 1 27 39 204 32 0 0 0 0 0 0 0 0 5 7 14 10 0 28 74 219 530 489 474 259 169 106 155 295
0 0 0 0 0 0 0 0 0 0 0 0 0 0 0 0 0 0 0 0 0 109 180 246 274 85 0 0 3 0 0 0 5 24 31 55 60 54 62 45 282 507 343 132 10 12 9 24 110
0 0 0 0 0 0 0 0 0 0 0 0 0 1 0 0 0 0 0 0 0 20 253 330 333 249 100 0 58 10 3 26 100 74 70 155 130 87 29 242 487 551 358 151 57 69 5 0 12
0 0 0 0 0 0 0 0 0 0 0 0 0 0 0 0 0 0 0 0 0 0 155 276 344 279 286 159 99 81 73 200 327 216 178 212 125 47 91 365 683 672 462 287 148 57 0 0 0
5 0 0 0 0 0 0 0 0 0 0 0 0 0 0 0 0 0 0 0 0 0 0 396 393 372 409 363 404 309 128 182 411 269 195 205 105 155 315 307 423 389 405 134 130 43 4 0 0
0 0 0 0 0 0 0 0 0 0 0 0 0 0 0 0 0 0 0 0 0 0 0 171 515 589 589 473 390 426 208 214 259 231 205 267 312 500 553 327 339 327 230 134 21 52 37 5 49
0 0 0 0 0 0 0 0 0 0 0 0 0 0 0 0 0 0 0 0 0 0 0 6 513 974 845 546 566 665 576 522 414 283 333 454 569 626 389 206 272 389 257 188 138 119 103 95 125
0 0 0 0 0 0 0 0 0 0 0 0 0 0 0 0 0 0 0 0 0 0 0 0 347 926 967 767 660 698 718 690 616 738 676 699 652 582 409 452 612 412 279 159 113 107 22 4 16
0 0 0 0 0 0 0 0 0 0 0 0 0 0 0 0 0 0 0 0 0 0 0 0 280 675 890 869 658 801 930 915 923 820 961 954 840 650 475 564 518 475 387 330 169 81 80 76 9
0 0 0 0 0 0 0 0 0 0 0 0 0 0 0 0 0 0 0 0 0 0 0 0 387 609 780 964 1132 903 1103 1081 996 813 1010 943 740 496 524 533 457 454 477 379 290 163 21 5 23
0 0 0 0 0 0 0 0 0 0 0 0 0 0 0 0 0 0 1 0 0 0 0 57 349 532 911 1043 1289 1491 1173 957 768 431 381 590 407 524 567 577 555 401 546 543 396 259 120 7 15
0 0 0 0 0 0 0 0 0 0 0 0 0 0 0 0 0 0 0 0 0 0 0 57 321 874 1352 1631 1407 1383 1371 991 573 421 296 311 444 493 595 635 607 543 626 509 309 197 104 77 28
0 0 0 0 0 0 0 0 0 0 0 0 0 0 0 0 0 0 0 0 0 31 14 225 533 1246 1705 1801 1695 1430 1287 967 718 276 335 415 492 686 745 449 422 588 441 379 287 170 137 80 60
0 0 0 0 0 0 0 0 0 0 0 0 0 0 0 0 0 0 0 0 0 12 289 751 1252 1605 1925 1835 1738 1386 1129 665 486 330 300 396 471 477 435 322 307 382 312 299 176 95 89 84 40
0 0 0 0 0 0 0 0 0 0 0 0 0 0 0 0 0 0 0 0 7 137 451 845 1571 1838 2039 1857 1667 1354 811 553 485 253 301 373 435 538 532 374 292 237 195 141 171 178 143 70 18
0 0 0 0 0 0 0 0 0 0 0 0 0 0 0 0 0 0 0 0 25 386 685 951 1986 2083 1978 1734 1438 1118 678 492 333 313 407 526 438 418 225 239 191 136 226 212 225 183 156 98 37
0 0 0 0 0 0 0 0 0 0 0 0 0 0 0 0 0 0 0 3 420 591 689 1041 1698 1864 1668 1353 1036 701 369 397 252 318 317 473 323 230 181 160 148 115 87 128 96 152 141 133 58
0 0 0 0 0 0 0 0 0 0 0 0 0 0 0 0 0 0 166 458 590 762 992 1491 1638 1462 1106 884 504 228 172 251 274 245 232 268 248 289 290 183 44 6 35 166 209 179 157 125 104
0 0 0 0 0 0 0 0 0 0 0 0 0 0 0 0 13 116 259 545 774 932 1147 1248 1250 1014 751 468 235 325 195 312 211 206 173 200 266 171 214 157 0 6 86 182 231 82 45 131 152
0 0 0 0 0 0 0 0 0 0 0 0 0 0 117 115 184 314 525 717 882 1043 1071 1001 849 552 550 347 287 337 203 127 115 107 51 152 109 157 13 22 18 213 315 384 347 89 113 125 89
0 0 0 0 0 0 0 0 0 0 0 0 0 0 257 333 424 525 585 743 932 944 787 794 553 338 426 188 366 264 213 240 284 123 25 26 94 0 9 13 194 332 269 412 208 102 74 86 74
0 0 0 0 0 0 0 0 0 0 0 0 0 40 322 419 488 460 544 765 805 747 661 696 439 342 319 306 268 199 310 200 126 71 12 14 0 26 7 0 175 357 115 160 72 58 101 138 101
0 0 0 0 0 0 0 0 0 0 0 0 0 190 308 380 415 416 571 678 628 666 632 543 380 342 269 365 156 62 86 50 14 0 1 1 0 17 7 43 226 54 24 56 35 26 66 52 50
0 0 0 0 0 0 0 0 0 21 0 0 0 245 375 407 390 472 562 540 599 518 513 405 285 346 143 344 160 40 89 15 2 0 2 0 0 0 13 8 76 36 70 57 58 46 4 9 11

GFSSGP_con_mlcape_024.txt.gz
CAPE
0 0 0 0 0 0 0 0 0 0 0 0 0 0 0 0 0 0 0 0 27 0 0 7 0 0 0 0 0 0 0 0 0 0 0 0 0 0 0 0 0 0 0 0 0 0 0 0 0
0 0 0 0 0 0 0 0 0 0 0 0 0 0 0 0 0 2 3 74 0 0 0 0 0 0 0 0 0 0 0 0 0 0 0 0 0 0 0 0 0 0 0 0 0 0 0 0 0
0 0 0 0 0 0 0 0 0 9 11 1 0 0 0 0 0 0 11 102 0 0 0 0 0 0 0 0 0 0 0 0 0 0 0 0 0 0 0 0 0 0 0 0 0 0 0 0 9
0 0 0 0 0 0 0 0 0 6 2 0 0 0 0 0 0 10 63 51 2 0 0 0 0 0 0 0 0 0 0 0 0 0 0 0 0 0 0 0 0 0 0 11 40 47 45 47 18
0 0 0 0 0 0 0 0 0 0 13 0 0 0 0 0 0 69 58 41 0 0 0 0 0 0 0 0 0 0 0 0 0 0 0 0 0 0 0 0 0 0 0 37 103 157 252 285 254
0 0 0 0 0 0 0 0 0 1 27 5 0 0 0 0 26 65 80 28 4 0 0 0 0 0 0 0 0 0 0 0 0 0 0 0 14 14 20 19 30 48 121 226 332 456 316 261 199
0 0 0 0 0 0 0 0 0 1 0 0 0 0 0 3 7 59 55 52 0 0 0 0 0 0 0 0 0 0 0 0 0 0 0 7 23 30 34 29 62 150 331 434 500 318 193 174 169
0 0 0 0 0 0 0 0 0 0 0 0 0 0 0 0 0 0 10 45 6 8 11 72 0 0 0 0 0 0 0 0 0 0 0 20 32 41 43 39 85 273 483 328 277 170 70 58 50
0 0 0 0 0 0 0 0 0 0 0 0 0 0 0 0 0 0 0 0 14 107 107 154 131 0 0 0 0 0 0 0 0 0 2 47 60 71 62 72 128 364 539 355 231 148 68 60 27
0 0 0 0 0 0 0 0 0 0 0 0 0 0 0 0 0 0 0 0 0 13 130 255 280 100 0 0 0 65 17 21 35 33 30 77 65 53 80 58 327 486 717 563 346 214 169 60 0
0 0 0 0 0 0 0 0 0 0 0 0 0 0 0 0 0 0 0 0 0 0 2 177 259 287 148 0 0 110 15 1 78 97 54 130 91 87 85 68 315 638 913 656 512 276 191 0 0
0 0 0 0 0 0 0 0 0 0 0 0 0 0 0 0 0 0 0 0 0 0 0 44 278 352 323 158 18 59 48 21 111 179 169 67 68 51 36 142 276 395 420 327 132 80 28 0 0
0 0 0 0 0 0 0 0 0 0 0 0 0 0 0 0 0 0 0 0 0 0 0 28 202 369 397 334 253 202 115 47 240 265 208 166 76 42 140 340 297 251 223 246 156 97 65 81 0
0 0 0 0 0 0 0 0 0 0 0 0 0 0 0 0 0 0 0 0 0 0 0 16 154 353 512 418 351 405 347 177 231 292 156 198 142 115 372 534 239 205 279 208 140 154 159 90 22
0 0 0 0 0 0 0 0 0 0 0 0 0 0 0 0 0 0 0 0 0 0 0 0 68 425 522 507 401 515 513 413 290 252 237 204 250 269 529 509 356 374 290 193 127 64 50 21 0
0 0 0 0 0 0 0 0 0 0 0 0 0 0 0 0 0 0 0 0 0 0 0 0 80 406 589 692 526 633 690 629 577 553 574 667 562 555 594 490 490 443 349 299 233 147 49 9 41
0 0 0 0 0 0 0 0 0 0 0 0 0 0 0 0 0 0 0 0 0 0 0 0 40 188 472 789 619 750 823 810 720 677 879 899 775 729 733 489 431 381 425 346 314 346 182 111 47
0 0 0 0 0 0 0 0 0 0 0 0 0 0 0 0 0 0 0 0 0 0 0 0 61 250 556 790 871 810 873 843 745 839 955 889 930 848 544 443 418 373 459 449 357 343 203 164 99
0 0 0 0 0 0 0 0 0 0 0 0 0 0 0 0 0 0 0 0 0 0 0 0 181 556 700 830 1182 1126 1035 889 790 753 722 755 775 403 388 401 441 460 511 558 290 216 164 114 73
0 0 0 0 0 0 0 0 0 0 0 0 0 0 0 0 0 0 0 0 0 0 0 4 137 563 909 1084 1239 1202 834 558 457 314 268 304 352 417 451 531 372 326 359 284 134 86 38 29 26
0 0 0 0 0 0 0 0 0 0 0 0 0 0 0 0 0 0 0 0 0 2 11 118 344 845 1350 1388 1221 990 757 455 383 257 279 279 291 414 403 240 192 194 137 40 2 9 2 6 3
0 0 0 0 0 0 0 0 0 0 0 0 0 0 0 0 0 0 0 0 0 0 432 867 1078 1399 1634 1576 1340 1147 942 851 489 317 207 363 393 380 316 205 110 46 1 19 33 24 18 15 0
0 0 0 0 0 0 0 0 0 0 0 0 0 0 0 0 0 0 0 0 0 312 816 1302 1498 1751 1689 1588 1323 1110 960 629 495 298 223 265 269 284 240 82 16 0 2 0 11 26 26 31 33
0 0 0 0 0 0 0 0 0 0 0 0 0 0 0 0 0 0 0 0 279 820 1323 1564 1804 1812 1604 1392 1109 1006 797 444 300 266 335 281 243 166 92 48 4 0 0 0 6 35 48 51 55
0 0 0 0 0 0 0 0 0 0 0 0 0 0 0 0 0 0 5 208 610 851 1074 1426 1661 1536 1211 879 563 349 257 223 269 251 208 152 120 152 157 62 5 0 0 5 25 51 45 47 73
0 0 0 0 0 0 0 0 0 0 0 0 0 0 0 0 19 94 307 577 798 1009 1233 1258 1153 1019 715 289 153 101 103 145 133 126 108 79 101 23 0 7 0 0 11 102 130 69 35 55 81
0 0 0 0 0 0 0 0 0 0 0 0 0 0 0 26 149 269 554 788 869 958 1068 974 763 432 235 190 107 72 70 89 30 18 38 14 0 7 0 0 4 89 181 203 197 81 62 77 30
0 0 0 0 0 0 0 0 0 0 0 0 0 0 37 200 279 461 654 803 831 869 803 562 395 220 225 155 117 60 100 93 71 1 0 0 0 0 0 0 16 103 48 72 55 63 87 71 49
0 0 0 0 0 0 0 0 0 0 0 0 0 0 140 279 378 511 658 733 691 648 519 305 261 146 177 113 85 100 39 11 0 0 0 0 0 0 0 0 52 9 4 4 7 21 55 29 18
0 0 0 0 0 0 0 0 0 0 0 0 0 63 283 361 408 540 625 648 527 526 412 260 231 143 170 72 54 51 8 0 0 0 0 0 0 0 0 0 60 7 5 21 27 38 21 16 12

GFSSGP_con_mlcape_030.txt.gz
CAPE
0 0 0 0 0 0 0 0 0 0 0 0 0 0 0 0 0 0 0 0 0 0 0 0 0 0 0 0 0 0 0 0 0 0 0 0 0 0 0 0 0 0 0 0 0 0 0 0 0
0 0 0 0 0 0 0 0 0 0 0 0 0 0 0 0 0 0 0 0 0 0 0 0 0 0 0 0 0 0 0 0 0 0 0 0 0 0 0 0 0 0 0 0 0 0 0 0 0
0 0 0 0 0 0 0 0 0 0 0 0 0 0 0 0 0 0 0 0 0 0 1 0 0 0 0 0 0 0 0 0 0 0 0 0 0 0 0 0 0 0 0 0 0 0 0 0 0
0 0 0 0 0 0 0 0 0 0 0 0 0 0 0 0 0 0 0 0 0 1 5 0 0 0 0 0 0 0 0 0 0 0 0 0 0 0 0 0 0 0 0 0 0 0 0 0 0
0 0 0 0 0 0 0 0 0 0 0 0 0 0 0 0 0 0 0 0 0 0 0 0 0 0 0 0 0 0 0 0 0 0 0 0 0 0 0 0 0 16 28 31 58 107 130 139 204
0 0 0 0 0 0 0 0 0 0 0 0 0 0 0 0 4 2 7 1 4 0 1 0 0 0 0 0 0 0 0 0 0 0 0 0 0 0 0 0 8 34 60 70 100 147 235 339 368
0 0 0 0 0 0 0 0 0 0 0 0 0 0 0 0 0 0 4 6 4 0 1 0 0 5 0 19 0 0 0 0 0 0 0 0 0 0 0 0 19 50 81 98 183 367 505 500 376
0 0 0 0 0 0 0 0 0 0 0 0 0 0 0 0 0 24 39 35 20 0 0 0 0 3 0 40 9 0 0 0 0 0 0 0 0 0 0 6 44 84 154 248 405 490 580 513 340
0 0 0 0 0 0 0 0 0 0 0 0 0 0 0 0 0 0 12 23 37 26 2 0 0 11 24 8 66 76 8 5 0 0 0 1 5 0 7 27 37 104 221 371 529 531 530 369 214
0 0 0 0 0 0 0 0 0 0 0 0 0 0 0 0 0 0 0 0 10 50 64 15 2 3 39 44 24 92 60 83 49 50 60 30 0 0 1 36 45 68 261 513 694 591 503 370 139
0 0 0 0 0 0 0 0 0 0 0 0 0 0 0 0 0 0 0 0 0 2 57 76 30 25 31 35 14 16 90 48 76 67 69 80 17 16 76 13 96 74 245 512 873 831 658 246 111
0 0 0 0 0 0 0 0 0 0 0 0 0 0 0 0 0 0 0 0 0 0 0 39 84 58 31 34 11 0 41 37 17 68 87 9 2 0 24 0 1 22 106 457 574 616 548 233 99
0 0 0 0 0 0 0 0 0 0 0 0 0 0 0 0 0 0 0 0 0 0 0 0 7 24 44 39 27 10 22 27 14 73 86 50 4 0 0 2 0 0 13 264 467 487 370 169 48
0 0 0 0 0 0 0 0 0 0 0 0 0 0 0 0 0 0 0 0 0 0 0 0 0 1 56 44 63 57 17 62 46 63 70 109 10 0 0 0 0 0 1 224 306 285 210 116 54
0 0 0 0 0 0 0 0 0 0 0 0 0 0 0 0 0 0 0 0 0 0 0 0 0 0 0 18 65 55 48 84 59 78 125 139 65 0 0 0 0 0 0 201 128 142 126 97 62
0 0 0 0 0 0 0 0 0 0 0 0 0 0 0 0 0 0 0 0 0 0 0 0 0 0 0 11 92 97 93 114 132 142 168 161 104 7 0 0 0 0 4 181 82 147 161 135 110
0 0 0 0 0 0 0 0 0 0 0 0 0 0 0 0 0 0 0 0 0 0 0 0 0 0 0 3 125 200 219 200 189 203 221 202 155 77 19 0 0 0 116 156 123 126 137 207 152
0 0 0 0 0 0 0 0 0 0 0 0 0 0 0 0 0 0 0 0 0 0 0 0 0 0 0 7 139 223 306 348 332 303 280 281 248 170 73 19 0 5 294 183 126 192 116 143 122
0 0 0 0 0 0 0 0 0 0 0 0 0 0 0 0 0 0 0 0 0 0 0 0 0 0 0 24 85 245 365 416 432 423 414 386 308 214 154 87 31 185 281 242 159 157 138 69 0
0 0 0 0 0 0 0 0 0 0 0 0 0 0 0 0 0 0 0 0 0 0 0 0 0 0 0 74 161 356 396 347 421 569 568 511 379 266 248 202 152 271 199 184 128 100 17 0 0
0 0 0 0 0 0 0 0 0 0 0 0 0 0 0 0 0 0 0 0 0 0 0 0 0 0 0 107 287 331 330 305 470 620 711 573 520 495 410 327 392 255 187 226 131 37 0 0 0
0 0 0 0 0 0 0 0 0 0 0 0 0 0 0 0 0 0 0 0 0 0 0 0 0 0 0 86 235 352 408 478 584 710 689 631 578 559 459 436 292 193 203 85 15 0 0 0 0
0 0 0 0 0 0 0 0 0 0 0 0 0 0 0 0 0 0 0 0 0 0 0 0 0 6 66 233 403 521 535 437 513 712 784 508 401 429 318 245 192 136 10 0 0 0 0 0 0
0 0 0 0 0 0 0 0 0 0 0 0 0 0 0 0 0 0 0 0 0 0 0 0 37 191 382 547 497 542 603 622 677 552 433 290 131 255 189 199 145 6 0 0 0 0 0 0 0
0 0 0 0 0 0 0 0 0 0 0 0 0 0 0 0 0 0 0 0 0 3 170 247 475 573 646 644 536 481 551 540 553 373 229 123 70 95 140 43 1 0 0 0 0 0 0 4 3
0 0 0 0 0 0 0 0 0 0 0 0 0 0 0 0 0 0 0 0 77 365 725 790 819 781 726 629 428 274 287 312 246 159 89 74 77 63 3 0 0 0 0 0 0 0 8 21 17
1 0 0 0 0 0 0 0 0 0 0 0 0 0 0 0 0 0 0 196 537 889 949 905 864 775 605 437 285 229 199 173 76 11 14 22 11 3 0 0 0 0 0 0 0 1 14 20 16
0 0 0 0 0 0 0 0 0 0 0 0 0 0 0 0 0 0 153 589 882 842 776 756 713 752 461 362 329 208 74 30 27 36 27 0 0 0 0 0 0 0 0 6 1 20 12 26 23
0 0 0 0 0 0 0 0 0 0 0 0 0 0 0 0 0 67 410 647 656 784 700 550 452 318 243 127 18 8 12 13 6 4 2 0 0 0 0 0 0 0 0 0 0 0 21 19 16
0 0 0 0 0 0 0 0 0 0 0 0 0 0 0 0 98 364 568 585 656 764 610 319 70 33 0 0 0 0 0 0 0 0 0 0 0 0 0 0 0 0 0 0 0 12 9 0 0

GFSSGP_con_mlcape_033.txt.gz
CAPE
0 0 0 0 0 0 0 0 0 0 0 0 0 0 0 0 0 0 0 0 0 0 14 0 0 0 0 0 0 0 0 0 0 0 0 0 0 0 0 0 0 0 0 0 0 0 0 0 0
0 0 0 0 0 0 0 0 0 0 0 0 0 0 0 0 0 0 0 0 0 4 4 1 0 0 0 0 0 0 0 0 0 0 0 0 0 0 0 0 0 0 0 0 0 0 0 0 0
0 0 0 0 0 0 0 0 0 0 0 0 0 0 0 0 0 0 0 0 0 14 18 16 0 0 0 0 0 0 0 0 0 0 0 0 0 0 0 0 0 0 0 0 0 0 0 0 0
0 0 0 0 0 0 0 0 0 0 0 0 0 0 0 0 0 0 0 0 0 20 7 24 0 0 0 0 0 0 0 0 0 0 0 0 0 0 0 0 0 0 0 0 0 10 11 7 19
0 0 0 0 0 0 0 0 0 0 0 0 0 0 0 0 0 1 0 0 1 2 12 7 8 0 0 0 0 0 0 0 0 0 0 0 0 0 0 0 0 0 9 15 38 61 62 90 169
0 0 0 0 0 0 0 0 0 0 0 0 0 0 0 0 8 6 0 0 56 47 98 82 174 3 0 0 0 0 0 0 0 0 0 0 0 0 0 0 0 7 42 87 123 181 195 235 369
0 0 0 0 0 0 0 0 0 0 0 0 0 0 0 0 5 39 44 68 98 165 122 57 180 130 14 23 3 0 0 0 0 0 0 0 0 0 0 0 9 30 58 94 152 197 316 451 457
0 0 0 0 0 0 0 0 0 0 0 0 0 0 0 0 19 75 100 105 91 147 112 9 43 280 83 128 183 0 0 0 0 0 0 0 0 0 0 0 25 48 83 132 211 342 552 614 464
0 0 0 0 0 0 0 0 0 0 0 0 0 0 0 0 37 39 40 97 87 47 28 15 5 100 134 119 225 138 35 9 12 25 6 9 8 16 13 9 30 50 163 271 376 486 626 682 423
0 0 0 0 0 0 0 0 0 0 0 0 0 0 0 0 0 0 0 3 34 51 26 13 12 39 116 79 134 298 183 92 115 112 116 90 117 106 20 57 34 95 249 392 552 677 684 528 312
0 0 0 0 0 0 0 0 0 0 0 0 0 0 0 0 0 0 0 0 0 0 74 73 69 95 94 155 194 169 229 176 222 193 232 248 236 161 134 99 140 151 237 482 648 777 704 602 416
0 0 0 0 0 0 0 0 0 0 0 0 0 0 0 0 0 0 0 0 0 0 0 11 85 107 138 150 154 137 129 164 113 180 291 260 223 170 162 117 141 292 183 491 811 847 962 912 580
0 0 0 0 0 0 0 0 0 0 0 0 0 0 0 0 0 0 0 0 0 0 0 0 0 5 67 148 157 152 144 158 117 126 270 265 161 201 192 184 147 154 256 285 756 874 974 942 680
0 0 0 0 0 0 0 0 0 0 0 0 0 0 0 0 0 0 0 0 0 0 0 0 0 0 9 35 104 140 155 184 183 142 217 312 191 225 158 148 103 5 1 120 561 868 887 861 545
0 0 0 0 0 0 0 0 0 0 0 0 0 0 0 0 0 0 0 0 0 0 0 0 0 0 0 7 23 113 154 151 200 193 236 279 296 278 74 77 111 15 6 6 270 619 584 599 528
0 0 0 0 0 0 0 0 0 0 0 0 0 0 0 0 0 0 0 0 0 0 0 0 0 0 0 0 6 95 184 167 204 241 232 297 353 282 160 44 41 26 0 16 129 524 415 572 617
0 0 0 0 0 0 0 0 0 0 0 0 0 0 0 0 0 0 0 0 0 0 0 0 0 0 0 0 33 130 187 171 232 270 279 364 365 287 160 97 16 3 34 58 277 556 457 664 703
0 0 0 0 0 0 0 0 0 0 0 0 0 0 0 0 0 0 0 0 0 0 0 0 0 0 0 0 72 267 340 271 292 340 383 382 347 312 333 207 87 104 71 69 487 590 574 652 769
0 0 0 0 0 0 0 0 0 0 0 0 0 0 0 0 0 0 0 0 0 0 0 0 0 0 0 0 22 129 241 471 473 473 485 447 509 525 437 287 249 126 111 181 664 544 646 661 330
0 0 0 0 0 0 0 0 0 0 0 0 0 0 0 0 0 0 0 0 0 0 0 0 0 0 0 0 51 308 514 500 538 535 658 719 690 660 556 387 269 140 212 529 559 594 312 279 149
0 0 0 0 0 0 0 0 0 0 0 0 0 0 0 0 0 0 0 0 0 0 0 0 0 0 0 1 222 384 461 280 484 640 650 721 687 683 542 492 317 260 658 712 512 531 309 491 19
0 0 0 0 0 0 0 0 0 0 0 0 0 0 0 0 0 0 0 0 0 0 0 0 0 0 0 30 193 272 403 297 570 545 681 697 780 706 543 489 474 658 643 437 445 592 270 250 117
0 0 0 0 0 0 0 0 0 0 0 0 0 0 0 0 0 0 0 0 0 0 0 0 0 0 0 87 288 483 568 745 855 882 848 874 914 813 644 673 797 811 364 379 562 313 89 44 46
0 0 0 0 0 0 0 0 0 0 0 0 0 0 0 0 0 0 0 0 0 0 0 0 0 2 71 191 327 558 641 671 855 1019 1026 984 897 860 774 752 708 622 351 370 188 150 123 15 26
0 1 0 0 1 0 0 0 0 0 0 0 0 0 0 0 0 0 0 0 0 0 0 0 162 129 353 491 616 762 838 896 1057 1133 936 593 604 663 496 564 527 418 291 193 68 43 55 93 40
0 0 8 0 0 0 0 0 0 0 0 0 0 0 0 0 0 0 0 0 0 50 171 344 575 482 649 700 704 710 852 1007 1065 824 637 481 443 465 475 488 309 209 157 40 27 109 167 121 114
4 2 0 0 0 0 0 0 0 0 0 0 0 0 0 0 0 0 0 0 244 450 669 1005 931 894 822 660 603 679 692 738 612 534 435 345 387 416 373 307 232 149 87 79 93 114 246 196 39
0 5 1 0 0 0 0 0 0 0 0 0 0 0 0 0 0 0 0 200 675 944 1080 1055 956 887 714 670 566 515 505 463 329 270 267 326 332 272 237 158 57 3 33 167 369 410 389 248 27
1 0 9 1 0 0 0 0 0 0 0 0 0 0 0 41 1 30 362 758 914 1078 1075 934 796 733 645 516 407 360 268 183 180 236 258 260 195 130 30 0 0 130 240 224 217 332 340 53 34
0 0 0 14 0 0 0 0 0 0 0 0 0 0 0 82 129 352 639 914 1082 1146 986 892 723 641 440 291 234 186 157 172 176 162 153 113 54 0 0 4 125 256 247 204 116 96 46 5 17

GFSSGP_con_mlcape_036.txt.gz
CAPE
0 0 0 0 0 0 0 0 0 0 0 0 0 0 0 0 0 14 12 2 19 31 113 11 1 0 0 0 0 0 0 0 0 35 27 0 0 0 0 0 0 0 0 0 0 0 0 0 0
0 0 0 0 0 0 0 0 0 0 0 0 0 0 0 0 0 0 0 39 29 113 216 2 7 0 0 0 0 0 0 0 0 0 0 0 0 0 0 0 0 0 0 0 0 0 0 0 0
0 0 0 0 0 0 0 0 0 0 0 0 0 0 0 24 0 0 2 38 78 299 319 9 0 0 0 0 0 0 0 0 0 0 0 0 0 0 0 0 0 0 0 0 0 0 0 0 0
0 0 0 0 0 0 0 0 0 0 0 0 0 0 0 0 21 0 36 48 167 423 298 142 0 0 0 0 0 0 0 0 0 0 0 0 0 0 0 0 0 0 0 0 0 0 10 32 42
0 0 0 0 0 0 0 0 0 0 0 0 0 0 0 0 70 46 28 42 84 291 233 326 125 0 0 0 0 0 0 0 0 0 0 0 0 0 0 0 0 0 1 5 13 30 46 62 111
0 0 0 0 0 0 0 0 0 0 0 0 0 0 0 21 123 27 35 41 61 191 232 163 427 115 25 0 0 0 0 0 0 0 0 0 0 0 0 0 0 0 31 47 67 108 143 208 290
0 0 0 0 0 0 0 0 0 0 0 0 1 0 0 4 49 70 45 89 193 223 315 234 456 209 170 22 0 0 0 0 0 0 0 0 0 0 0 0 0 0 80 144 192 272 288 315 475
0 0 0 0 0 0 0 0 0 0 0 0 0 0 0 7 202 224 126 195 233 316 350 435 421 264 71 52 84 1 0 0 0 0 0 0 0 0 0 0 2 39 139 212 251 283 341 497 607
0 0 0 0 0 0 0 0 0 0 0 0 0 0 0 98 232 178 239 194 189 275 509 447 340 416 189 0 57 223 181 31 5 4 19 23 1 18 0 0 23 80 191 209 229 318 501 636 516
0 0 0 0 0 0 0 0 0 0 0 0 0 0 0 36 79 18 18 48 83 160 332 536 595 439 439 75 19 355 80 73 27 24 30 26 17 16 2 7 69 111 250 301 415 596 779 644 438
0 0 0 0 0 0 0 0 0 0 0 0 0 0 0 0 0 0 0 0 0 0 10 358 537 727 539 418 130 175 346 90 100 91 81 88 26 45 56 50 101 117 201 296 431 654 623 623 591
0 0 0 0 0 0 0 0 0 0 0 0 0 0 0 0 0 0 0 0 0 0 0 143 607 959 976 594 508 389 354 363 245 192 214 163 149 158 139 66 125 111 129 212 546 671 771 817 809
0 0 0 0 0 0 0 0 0 0 0 0 0 0 0 0 0 0 0 0 0 0 0 0 9 705 920 1167 701 820 690 513 498 283 284 266 196 226 180 108 90 144 174 190 495 644 877 898 901
0 0 0 0 0 0 0 0 0 0 0 0 0 0 0 0 0 0 0 0 0 0 0 0 0 25 542 525 835 1028 1188 859 736 543 269 522 276 273 192 176 143 146 196 145 263 589 868 940 834
0 0 0 0 0 0 0 0 0 0 0 0 0 0 0 0 0 0 0 0 0 0 0 0 0 0 32 223 630 1005 861 1017 705 761 580 460 660 401 325 188 186 112 135 198 244 648 963 833 814
0 0 0 0 0 0 0 0 0 0 0 0 0 0 0 0 0 0 0 0 0 0 0 0 0 0 0 51 263 566 549 620 680 666 765 676 834 616 484 221 168 98 158 193 290 571 650 606 782
0 0 0 0 0 0 0 0 0 0 0 0 0 0 0 0 0 0 0 0 0 0 0 0 0 0 0 2 148 393 617 773 656 650 802 803 905 875 667 492 183 304 175 267 197 214 343 603 991
0 0 0 0 0 0 0 0 0 0 0 0 0 0 0 0 0 0 0 0 0 0 0 0 0 0 0 0 143 294 628 789 720 703 814 873 1031 928 863 609 392 354 215 144 142 137 649 851 801
0 0 0 0 0 0 0 0 0 0 0 0 0 0 0 0 0 0 0 0 0 0 0 0 0 0 0 0 95 503 593 805 773 810 921 976 988 928 937 811 726 540 151 100 179 489 1036 715 792
0 0 0 0 0 0 0 0 0 0 0 0 0 0 0 0 0 0 0 0 0 0 0 0 0 0 0 0 368 599 826 864 1027 986 1047 1018 1039 1080 1064 1009 860 622 177 242 394 867 779 844 837
0 0 0 0 0 0 0 0 0 0 0 0 0 0 0 0 0 0 0 0 0 0 0 0 0 0 0 13 669 1067 1189 1176 1147 869 1073 1154 1211 1044 985 958 904 698 316 345 925 998 995 636 755
0 0 0 0 1 0 0 0 0 0 0 0 0 0 0 0 0 0 0 0 0 0 0 0 0 0 0 423 595 1052 1030 880 964 1195 1055 973 952 991 941 1071 927 770 481 1215 890 862 898 918 505
0 0 0 6 1 0 0 0 0 0 0 0 0 0 0 0 0 0 0 0 0 0 0 0 0 0 0 380 649 1208 1047 1218 1331 1156 806 988 999 997 1183 1217 1070 1013 1329 1357 882 711 1031 609 210
12 10 2 23 8 10 0 0 0 0 0 0 0 0 0 0 0 0 0 0 0 0 0 0 6 24 314 801 1102 1361 1365 1385 1463 1568 1131 1311 1289 1342 1319 1274 1349 1490 1242 1089 776 759 681 311 109
18 22 22 17 19 6 0 1 0 0 0 0 0 0 0 0 0 0 0 0 0 0 0 131 489 683 924 1025 1235 1416 1717 1646 1874 1730 1630 1626 1533 1429 1400 1442 1291 1093 1141 923 787 661 337 265 111
9 13 24 21 17 1 0 3 0 0 0 0 0 0 0 0 0 0 0 0 0 0 116 624 706 1034 1129 1301 1480 1679 1864 1875 1886 1873 1773 1562 1301 1186 1325 1324 1214 1036 978 730 601 309 168 149 282
52 20 43 20 1 19 0 0 0 0 0 0 0 0 0 0 0 0 0 0 12 531 1004 1288 1315 1327 1431 1609 1721 1880 1901 1926 1783 1606 1323 1102 995 1159 1139 1138 920 842 706 528 424 104 227 263 381
110 49 14 29 7 29 0 0 0 0 0 0 0 0 0 32 103 84 83 185 829 1259 1787 1715 1639 1649 1638 1685 1750 1793 1741 1652 1561 1259 777 751 898 810 1046 1009 851 659 371 345 356 188 305 354 362
19 30 29 55 13 1 6 0 0 0 0 0 0 0 0 5 294 492 609 953 1339 1797 1844 1919 1811 1713 1659 1537 1504 1472 1377 1261 996 845 861 1000 992 949 759 536 256 145 276 487 531 559 450 332 144
0 1 0 86 22 0 0 1 0 0 0 0 0 0 0 27 356 446 701 1085 1740 1744 1713 1724 1645 1570 1486 1416 1364 1213 882 750 806 828 851 844 679 376 121 44 65 246 325 410 406 306 182 86 4

GFSSGP_con_mlcape_042.txt.gz
CAPE
0 0 0 0 0 0 0 0 0 0 0 0 0 0 0 21 0 43 0 0 404 4 0 0 0 0 0 0 0 45 374 724 853 811 779 694 538 189 69 0 0 0 0 0 0 0 0 0 0
0 0 0 0 0 0 0 0 0 0 0 0 0 0 9 41 5 0 0 9 428 17 0 0 0 0 0 0 0 11 212 678 792 768 651 596 411 110 35 0 0 0 0 0 0 0 0 0 0
0 0 0 0 0 0 0 0 0 0 5 0 0 3 32 85 45 0 0 207 569 106 0 0 0 0 0 0 0 0 87 288 621 723 618 489 271 58 0 0 0 0 0 0 0 0 0 0 0
0 0 0 0 0 0 0 0 0 10 76 0 0 0 39 116 30 52 4 195 420 197 7 84 0 0 0 0 0 0 0 21 173 375 337 230 65 0 0 0 0 0 0 0 0 0 0 0 0
0 0 0 0 0 0 0 0 0 15 23 0 0 0 25 98 109 0 28 207 281 374 185 247 0 0 0 0 0 0 0 0 0 9 63 18 0 0 0 0 0 0 0 0 1 0 0 11 57
0 0 0 0 0 0 0 0 0 0 0 3 2 0 3 39 132 2 30 208 342 481 532 496 73 0 0 0 0 0 0 0 0 0 0 0 0 0 0 0 0 0 0 1 6 0 5 40 81
0 0 0 0 0 0 0 0 0 0 0 0 0 2 41 64 114 25 9 53 164 391 848 722 321 0 3 0 0 0 0 0 0 0 0 0 0 0 0 0 0 0 0 7 8 16 41 85 170
0 0 0 0 0 0 0 0 0 0 0 0 0 6 28 176 137 0 0 4 77 238 832 1233 736 240 0 35 19 0 0 0 0 0 0 0 0 0 0 0 0 0 0 19 40 53 126 218 272
0 0 0 0 0 0 0 0 0 0 0 0 0 8 40 95 68 0 0 0 6 45 176 1470 1452 689 98 90 118 46 0 0 0 0 0 0 0 0 0 0 0 0 0 46 86 113 262 386 416
0 0 0 0 0 0 0 0 0 0 0 0 0 31 81 91 6 18 0 6 13 54 31 613 1499 846 200 38 145 99 2 0 0 0 0 0 0 0 0 0 0 0 0 65 147 222 397 483 476
0 0 0 0 0 0 0 0 0 0 0 0 0 8 50 219 85 112 23 7 68 80 139 399 1132 1226 706 275 319 336 120 35 39 10 9 31 0 0 0 0 0 23 51 71 185 301 410 401 436
0 0 0 0 0 0 0 0 6 0 0 0 0 1 64 61 282 191 103 84 92 114 42 347 604 1568 1264 798 776 770 647 453 298 175 41 41 5 0 0 0 11 0 48 33 90 223 359 435 582
0 0 0 0 0 0 0 0 0 0 0 0 0 0 30 72 181 101 63 0 0 0 0 207 1615 1491 1440 1348 1333 741 946 1008 691 477 251 57 155 14 8 64 46 43 67 113 53 336 502 673 713
0 0 0 0 0 0 0 0 0 0 0 0 0 0 61 0 0 0 0 0 0 3 6 7 1495 1818 1823 796 1470 1925 827 1068 1204 892 762 419 193 258 139 70 135 204 138 213 182 310 686 986 1192
0 0 0 0 0 0 0 0 0 0 0 0 0 0 0 31 2 1 0 0 0 0 0 0 4 1361 1466 1264 1217 1098 2023 1225 1574 1355 1245 876 647 443 264 332 152 149 350 152 359 289 527 890 1214
0 0 0 0 0 0 0 0 0 0 0 0 0 0 0 0 0 5 0 0 38 38 18 84 11 540 1004 1380 1470 1793 1307 1628 1865 1398 1751 1675 1119 644 894 482 550 466 248 520 308 753 644 808 968
0 0 0 0 0 0 0 0 0 0 0 0 0 0 0 10 1 0 0 1 0 0 0 3 29 68 817 1385 1194 1468 1754 1797 1493 1617 1534 1902 1672 1230 920 1143 836 645 576 267 573 466 431 571 931
0 0 0 0 0 0 0 0 0 0 0 0 0 0 0 2 0 30 94 53 48 53 162 99 188 180 343 928 793 864 970 1002 1258 1123 1141 1497 1912 1816 1398 1379 1009 1086 654 623 549 434 457 593 843
0 0 0 0 0 0 0 0 0 0 0 0 0 0 0 0 0 3 0 97 40 77 41 22 52 85 270 636 285 255 405 343 814 1163 1227 1564 1945 1853 1731 1243 1566 985 998 650 591 557 561 550 466
0 0 0 0 0 0 0 0 0 0 0 0 0 0 0 0 0 0 22 137 86 79 9 0 63 146 105 94 106 346 333 209 567 1157 1455 1704 2041 1807 1851 1639 1421 1321 1289 779 835 653 480 446 687
0 0 0 0 0 0 0 0 0 0 0 0 0 0 0 0 0 0 34 70 160 37 2 0 39 17 29 38 232 557 165 394 1398 1380 1548 1713 1883 1969 1687 1526 1402 1649 1181 916 827 663 449 394 722
0 0 0 0 0 0 0 0 0 0 0 0 0 0 0 0 0 0 0 0 0 2 0 0 22 12 22 139 729 675 482 358 987 1593 1699 1781 1775 1809 1774 1593 1426 1858 1154 1148 945 722 375 489 1128
0 0 0 0 0 0 0 0 0 0 0 0 0 0 0 0 0 0 0 0 0 0 0 0 1 12 55 442 465 805 777 1184 1401 1844 2030 1785 1784 1730 1587 1327 1258 1520 1205 1138 727 699 742 1136 792
1 0 2 2 2 0 0 0 0 0 0 0 0 1 0 0 0 0 0 0 0 0 0 0 0 0 62 189 1076 938 1223 1078 1530 1906 1946 1540 1365 1262 1195 1115 1129 1241 1154 1187 879 822 1139 703 652
63 2 13 9 11 0 0 0 0 0 0 0 0 0 0 0 6 0 0 0 0 0 0 0 0 8 388 597 1061 570 1306 1233 2411 1960 1717 1354 1152 1074 1048 1056 1058 1237 1186 1547 1202 943 768 852 705
23 1 10 13 8 1 0 0 0 0 0 0 0 0 2 0 0 0 0 0 0 0 0 0 0 110 613 695 530 1167 663 2400 2584 1669 1384 1085 1005 994 1376 1102 1512 1551 1441 1071 883 822 989 652 538
53 15 8 3 48 15 0 0 0 0 0 0 0 0 4 0 0 0 0 0 0 0 0 0 0 0 0 338 1087 1729 2091 2413 2317 1710 1330 1331 1319 1450 1363 1668 1601 1415 1159 913 957 776 412 513 438
121 24 34 78 6 0 4 0 1 0 12 0 0 0 0 44 9 2 44 55 69 122 15 0 3 649 1487 1593 2005 2294 2730 2587 2452 1979 2049 1775 1946 1749 1771 1628 1320 1013 788 867 662 421 382 177 98
128 141 111 9 17 9 1 0 20 48 1 0 0 3 148 22 0 54 654 550 357 699 1199 1187 1118 1597 1756 1728 1964 2359 2340 2687 2544 2299 1872 1898 1757 1574 1562 1218 768 465 421 502 561 380 345 106 16
72 98 55 17 0 32 24 0 41 0 0 0 0 33 31 156 1051 879 981 1908 1582 1299 1708 2017 2018 1796 1749 1989 2238 2530 2364 2247 1845 1611 1499 1450 1253 1023 892 661 469 617 336 171 404 247 420 330 221

GFSSGP_con_mlcape_045.txt.gz
CAPE
0 0 0 0 0 0 0 0 0 0 0 0 0 0 17 55 53 11 1 125 0 0 0 0 0 0 0 0 0 39 181 426 547 626 631 457 336 113 0 0 0 0 0 0 0 0 0 0 0
0 0 0 0 0 0 0 0 0 0 0 0 0 0 2 49 0 9 8 22 0 0 0 0 0 0 0 0 0 0 63 374 555 728 685 523 350 93 6 0 0 0 0 0 0 0 0 0 0
0 0 0 0 0 0 0 0 0 0 0 6 0 0 18 93 0 0 129 4 0 0 0 0 0 0 0 0 0 0 2 174 380 568 542 480 281 66 2 0 0 0 0 0 0 0 0 0 0
0 0 0 0 0 0 0 0 0 0 0 49 3 22 96 81 0 55 356 1 0 0 0 0 0 0 0 0 0 0 0 47 184 304 377 308 154 30 0 0 0 0 0 0 0 0 0 0 0
0 0 0 0 0 0 0 0 0 0 0 65 10 7 113 53 4 271 278 3 0 0 0 0 0 0 0 0 0 0 0 6 75 187 221 158 62 0 0 0 0 0 0 0 0 0 0 0 24
0 0 0 0 0 0 0 0 0 0 2 2 0 0 46 88 38 230 327 51 0 0 32 0 0 0 0 0 0 0 0 0 1 24 67 39 22 0 0 0 0 0 0 0 5 0 0 0 39
0 0 0 0 0 0 0 0 0 0 0 0 0 0 18 72 20 98 167 153 31 50 51 0 0 4 0 0 0 0 0 0 0 0 0 0 0 0 0 0 0 0 0 0 0 0 0 12 42
0 0 0 0 0 0 0 0 0 0 0 0 0 0 11 109 12 117 187 170 248 390 208 91 0 0 0 0 0 0 0 0 0 0 0 0 0 0 0 0 0 0 0 0 0 14 15 58 102
0 0 0 0 0 0 0 0 0 0 0 0 0 0 100 144 18 18 99 189 422 476 377 234 46 0 0 0 0 0 0 0 0 0 0 0 0 0 0 0 0 0 0 0 0 36 78 134 245
0 0 0 0 0 0 0 0 0 0 0 0 0 0 145 149 64 8 1 29 377 624 618 368 199 8 0 0 0 0 0 0 0 0 0 0 0 0 0 0 0 0 0 0 4 79 148 219 319
0 0 0 0 0 0 0 0 0 0 0 0 0 0 62 138 78 19 0 0 54 559 946 923 481 229 1 0 0 0 0 0 0 0 0 0 0 0 0 0 0 0 0 0 28 107 264 218 295
0 0 0 0 0 0 0 0 0 0 0 0 0 0 0 0 142 119 68 1 21 151 1189 1452 1041 518 142 0 34 36 2 0 0 0 0 0 0 0 0 0 0 0 0 0 0 5 114 170 204
0 0 0 0 0 0 0 0 0 0 0 0 0 0 0 0 21 179 30 34 0 0 409 897 1008 680 446 241 276 235 174 117 30 6 0 0 0 0 0 0 0 0 0 0 0 0 26 65 122
0 0 0 0 0 0 0 0 0 0 0 0 0 0 0 0 1 146 31 0 1 0 0 0 8 873 877 707 602 486 419 344 273 273 232 76 3 0 0 0 0 0 0 0 0 0 27 124 246
0 0 0 0 0 0 0 0 0 0 0 0 0 0 0 0 0 13 69 14 7 0 0 0 219 621 1379 1252 1286 1272 817 836 740 638 469 310 91 96 27 0 0 0 0 2 26 31 60 279 457
0 0 0 0 0 0 0 0 0 0 0 0 0 0 0 0 0 0 0 10 0 0 0 18 954 1149 1451 1362 1229 1435 1558 1347 1175 1019 849 660 392 175 159 106 42 33 26 51 87 89 83 168 792
0 0 0 0 0 0 0 0 0 0 0 0 0 0 0 0 0 0 0 0 0 2 0 19 857 1417 1553 1709 1293 558 379 627 1336 1440 1249 1227 805 520 375 192 215 90 107 138 105 198 216 232 386
0 0 0 0 0 0 0 0 0 0 0 0 0 0 0 0 0 0 0 0 0 0 0 5 89 800 1176 1043 1157 1259 1069 825 776 907 1305 1384 1265 1010 501 546 333 314 265 242 188 264 397 380 471
0 0 0 0 0 0 0 0 0 0 0 0 0 0 0 0 0 0 0 0 0 0 0 0 0 90 278 490 553 517 296 522 964 1256 1061 1111 1541 1395 1027 656 812 749 536 409 401 293 276 359 377
0 0 0 0 0 0 0 0 0 0 0 0 0 0 0 0 0 0 0 0 0 3 152 105 11 30 172 256 243 197 188 409 618 355 430 891 1393 1607 1366 1124 1087 985 892 669 531 496 386 300 289
0 0 0 0 0 0 0 0 0 0 0 0 0 0 0 0 0 0 0 0 0 5 138 127 24 4 0 31 124 128 94 72 191 608 502 891 1469 1678 1653 1347 1111 1186 1117 926 802 579 424 334 301
0 0 0 0 0 0 0 0 0 0 0 0 0 0 0 0 0 0 0 0 0 41 259 67 6 0 0 0 0 0 0 0 0 6 561 1273 1685 1679 1657 1500 1303 1221 1293 1066 976 626 461 334 264
0 0 0 0 0 0 0 0 0 0 0 0 0 0 0 0 0 0 0 0 0 0 107 8 0 0 0 0 0 0 0 3 97 388 1160 1487 1587 1624 1579 1501 1375 1297 1428 1263 923 651 456 338 342
1 1 0 1 0 0 0 0 0 0 0 0 0 0 0 0 0 0 0 0 0 0 0 0 0 0 0 0 0 0 0 105 475 1006 1472 1440 1409 1518 1588 1524 1264 1238 1337 1157 856 822 589 401 451
0 1 5 0 0 0 0 1 0 0 0 0 0 0 0 0 0 0 0 0 0 0 0 0 0 0 0 0 0 1 43 149 560 1360 1608 1428 1393 1346 1307 1093 1019 1072 1210 1051 888 710 651 645 629
0 11 1 0 0 0 0 0 0 0 0 0 0 0 0 0 0 0 0 0 0 0 0 0 0 0 0 0 99 234 247 724 1173 1649 1441 1320 1292 1172 1004 987 960 990 1064 982 1066 725 662 570 479
0 0 4 1 0 0 0 0 0 1 1 0 0 0 0 0 0 0 0 0 0 0 0 0 0 0 0 6 315 358 396 622 1542 1539 1377 1255 1130 999 940 955 916 995 1109 1063 760 587 530 595 435
16 14 3 11 0 0 0 0 0 5 0 0 0 0 0 0 0 0 0 0 0 0 0 0 0 0 136 400 443 679 914 1057 1242 1518 1373 1137 805 929 1037 976 1033 1185 1042 826 638 593 438 307 285
2 4 3 0 2 0 0 0 68 0 0 0 0 0 0 0 0 0 7 171 336 98 53 0 30 40 359 525 593 859 1387 1863 1876 1562 1196 1020 1076 1203 1305 1126 1247 984 831 629 435 219 282 216 141
7 34 5 9 1 0 0 0 13 0 0 0 0 0 0 0 0 0 10 882 1358 755 582 204 304 537 1090 1442 1641 1786 1857 2340 2038 1556 1673 1415 1568 1532 1299 1103 766 597 250 218 296 297 229 154 22

GFSSGP_con_mlcape_048.txt.gz
CAPE
0 0 0 0 0 0 0 0 0 0 0 0 0 0 0 72 52 24 12 0 0 0 0 49 71 0 0 0 6 27 118 152 194 252 132 43 8 0 0 0 0 0 0 0 0 0 0 0 0
0 0 0 0 0 0 0 0 0 0 0 0 0 0 21 72 66 50 47 1 0 0 0 4 52 0 0 0 11 40 71 112 176 236 143 49 0 0 0 0 0 0 0 0 0 0 0 0 0
0 0 0 0 0 0 0 0 0 0 0 0 0 0 24 67 121 71 75 0 0 0 0 0 50 0 0 0 0 14 30 72 151 187 124 68 16 0 0 0 0 0 0 0 0 0 0 0 0
0 0 0 0 0 0 0 0 0 0 0 0 0 14 50 52 103 87 49 0 0 0 0 0 28 0 0 0 0 1 0 38 80 138 116 94 43 0 0 0 0 0 0 0 0 0 0 0 0
0 0 0 0 0 0 0 0 0 0 0 0 0 8 61 79 171 81 0 0 0 0 0 0 9 0 0 0 0 3 18 25 68 99 93 78 24 0 0 0 0 0 0 0 0 0 0 0 1
0 0 0 0 0 0 0 0 0 0 0 0 0 46 21 100 103 27 0 0 0 0 0 0 0 1 0 0 0 0 3 19 41 45 68 38 15 0 0 0 0 0 0 0 0 0 0 0 23
0 0 0 0 0 0 0 0 0 0 0 0 0 0 20 79 171 19 0 0 0 0 0 0 0 0 0 0 0 0 0 0 6 36 37 23 1 0 0 0 0 0 0 0 0 12 6 1 42
0 0 0 0 0 0 0 0 0 0 0 0 0 0 21 49 376 238 0 0 0 0 0 0 0 0 0 0 0 0 0 0 0 13 22 34 0 0 0 0 0 0 0 0 0 37 21 27 73
0 0 0 0 0 0 0 0 0 0 0 0 0 0 0 5 283 267 70 0 0 0 0 0 0 0 0 0 0 0 0 0 0 0 10 7 0 0 0 0 0 0 0 0 0 19 35 72 139
0 0 0 0 0 0 0 0 0 0 0 0 0 0 0 39 174 192 140 0 0 0 1 0 0 0 0 0 0 0 0 0 0 0 0 0 0 0 0 0 0 0 0 0 0 10 84 120 146
0 0 0 0 0 0 0 0 0 0 0 0 0 0 0 1 33 135 122 0 0 0 58 42 0 0 0 0 0 0 0 0 0 0 0 0 0 0 0 0 0 0 0 0 0 2 110 99 125
0 0 0 0 0 0 0 0 0 0 0 0 0 0 0 0 0 0 0 104 303 428 340 306 59 0 0 0 0 0 0 0 0 0 0 0 0 0 0 0 0 0 0 0 0 0 4 60 117
0 0 0 0 0 0 0 0 0 0 0 0 0 0 0 0 0 0 3 9 141 876 1040 778 431 148 2 0 0 0 0 0 0 0 0 0 0 0 0 0 0 0 0 0 0 0 0 1 43
0 0 0 0 0 0 0 0 0 0 0 0 0 0 0 0 0 1 12 135 241 651 1275 1222 891 679 318 91 2 0 0 0 0 0 0 0 0 0 0 0 0 0 0 0 0 0 0 0 9
0 0 0 0 0 0 0 0 0 0 0 0 0 0 0 0 0 0 35 6 181 418 685 860 606 105 35 30 206 55 124 138 122 51 29 1 0 0 0 0 0 0 0 0 0 0 0 7 25
0 0 0 0 0 0 0 0 0 0 0 0 0 0 0 0 0 0 0 46 7 74 105 49 46 47 141 237 411 416 419 348 326 271 260 230 200 112 54 21 0 0 0 0 0 0 0 30 62
0 0 0 0 0 0 0 0 0 0 0 0 0 0 0 0 0 0 0 0 80 6 6 10 3 9 259 540 980 1101 1025 852 809 709 617 546 430 253 223 121 57 0 0 0 0 5 31 37 78
0 0 0 0 0 0 0 0 0 0 0 0 0 0 0 0 0 0 0 0 0 6 8 20 0 3 223 795 1211 1261 1136 1416 1264 1139 1094 1004 826 569 357 297 188 56 10 0 0 22 69 93 127
0 0 0 0 0 0 0 0 0 0 0 0 0 0 0 0 0 0 0 0 0 0 0 0 0 6 285 858 897 1199 1195 1203 1072 875 1047 1278 1372 1016 657 584 316 207 120 92 47 48 115 168 210
0 0 0 0 0 0 0 0 0 0 0 0 0 0 0 0 0 0 0 0 0 0 0 0 1 184 921 785 630 893 1066 753 590 600 603 764 962 1159 1052 771 648 424 320 208 182 129 150 199 243
0 0 0 0 0 0 0 0 0 0 0 0 0 0 0 0 0 0 0 0 0 0 0 0 0 67 955 853 1122 772 720 399 342 353 463 619 802 1083 1041 817 790 680 563 421 367 284 277 312 169
0 0 0 0 0 0 0 0 0 0 0 0 0 0 0 0 0 0 0 0 0 0 0 0 13 58 637 834 474 403 103 20 3 17 95 160 669 990 1066 1041 920 921 683 717 578 450 364 334 341
0 0 0 0 0 0 0 0 0 0 0 0 0 0 0 0 0 0 0 0 0 0 0 0 9 97 147 245 125 116 15 0 0 0 0 8 217 832 1267 1176 1053 1115 981 951 871 678 513 393 352
0 0 0 0 0 0 0 0 0 0 0 0 0 0 0 0 0 0 0 0 0 0 0 0 2 48 115 40 11 0 0 0 0 0 0 237 574 1119 1413 1351 1289 1150 1131 1057 985 821 544 414 418
0 0 0 0 0 0 0 0 0 0 0 0 0 0 0 0 0 0 0 0 0 0 0 0 1 15 9 0 0 0 0 0 0 0 123 567 993 1310 1390 1386 1316 1267 1035 1031 881 749 507 369 365
0 0 0 0 0 0 0 0 0 0 0 0 0 0 0 0 0 0 0 0 0 0 0 0 0 0 0 0 0 0 0 0 0 39 437 906 1176 1331 1262 1239 1151 967 907 971 770 682 639 437 377
0 0 0 4 0 5 0 0 0 0 0 0 0 0 0 0 0 0 0 0 0 0 0 0 0 0 0 0 0 0 0 24 35 393 883 945 1098 1172 1153 1028 757 794 784 826 707 717 635 543 485
0 0 0 3 0 0 0 0 0 0 0 0 0 0 0 0 0 0 0 0 0 0 0 0 0 0 0 0 0 0 32 308 498 820 892 1282 1188 1138 984 772 715 693 805 763 739 680 582 462 328
0 0 4 0 0 0 0 0 0 0 0 0 0 0 0 0 0 0 0 0 0 0 0 0 0 0 0 0 0 101 323 788 888 845 1193 1272 1089 965 791 738 758 772 828 773 591 404 350 361 212
0 2 3 7 20 0 0 0 0 0 0 0 0 0 0 0 0 0 0 0 0 0 0 308 0 0 0 17 206 679 1024 899 791 835 1076 1171 863 800 855 859 804 930 772 527 370 246 171 118 158

GFSSGP_con_mlcape_051.txt.gz
CAPE
0 0 0 0 0 0 0 0 0 0 0 0 0 0 0 0 0 0 0 0 0 0 60 114 60 240 99 89 84 67 92 138 128 67 46 18 15 2 0 0 0 0 0 0 0 0 0 0 0
0 0 0 0 0 0 0 0 0 0 0 0 0 0 0 0 0 3 0 0 0 0 108 76 35 159 53 61 64 57 80 117 104 50 19 9 1 0 0 0 0 0 0 0 0 0 0 0 0
0 0 0 0 0 0 0 0 0 0 0 0 0 0 0 28 1 0 4 0 0 0 35 47 16 125 86 47 29 29 55 95 78 47 27 2 0 0 0 0 0 0 0 0 0 0 0 0 0
0 0 0 0 0 0 0 0 0 0 0 0 0 0 0 20 72 30 9 0 0 0 20 63 3 50 93 41 4 4 21 66 69 51 21 16 0 0 0 0 0 0 0 0 0 0 0 0 0
0 0 0 0 0 0 0 0 0 0 0 0 0 0 0 24 121 88 6 0 0 0 0 66 0 0 91 56 0 9 17 29 35 45 33 25 0 0 0 0 0 0 0 0 0 0 0 0 0
0 0 0 0 0 0 0 0 0 0 0 0 0 0 1 57 132 64 17 0 0 0 0 16 2 0 91 114 34 23 27 34 31 57 42 37 18 0 0 0 0 0 0 0 0 0 0 0 0
0 0 0 0 0 0 0 0 0 0 0 0 0 0 0 103 154 22 0 0 0 0 0 0 0 0 143 94 41 14 56 47 27 59 90 88 90 14 0 0 0 0 0 0 0 0 0 0 0
0 0 0 0 0 0 0 0 0 0 0 0 0 0 0 18 179 0 0 0 0 0 0 0 0 0 21 59 100 12 52 95 63 72 96 131 93 35 1 0 0 0 0 0 0 0 22 4 13
0 0 0 0 0 0 0 0 0 0 0 0 0 0 0 222 236 11 0 0 0 0 0 0 0 0 0 16 183 164 93 168 167 137 108 168 105 73 35 0 0 0 0 0 0 0 29 37 65
0 0 0 0 0 0 0 0 0 0 0 0 0 0 0 282 307 37 0 0 0 0 0 0 0 0 0 3 39 169 111 229 207 139 107 97 5 1 9 0 0 0 0 0 0 0 5 78 86
0 0 0 0 0 0 0 0 0 0 0 0 0 0 0 0 212 205 6 0 0 0 0 0 0 0 0 0 0 2 2 4 15 22 22 4 0 0 10 0 0 0 0 0 0 0 0 10 72
0 0 0 0 0 0 0 0 0 0 0 0 0 0 0 0 0 12 17 38 6 2 0 0 0 0 0 0 0 0 0 0 0 0 0 0 0 0 0 0 0 0 0 0 0 0 0 0 32
0 0 0 0 0 0 0 0 0 0 0 0 0 0 0 0 0 0 1 0 59 154 27 2 0 0 0 0 0 0 0 0 0 0 0 0 0 0 0 0 0 0 0 0 0 0 0 0 0
0 0 0 0 0 0 0 0 0 0 0 0 0 0 0 0 0 0 0 5 18 338 268 194 0 0 0 0 0 0 0 0 0 0 0 0 0 0 0 0 0 0 0 0 0 0 0 0 0
0 0 0 0 0 0 0 0 0 0 0 0 0 0 0 0 0 0 0 38 85 391 626 479 216 80 0 0 0 0 0 0 0 0 0 0 0 0 0 0 0 0 0 0 0 0 0 0 0
0 0 0 0 0 0 0 0 0 0 0 0 0 0 0 0 0 0 4 60 171 313 698 942 767 420 126 7 2 1 16 81 42 13 0 0 0 0 0 0 0 0 0 0 0 0 0 0 0
0 0 0 0 0 0 0 0 0 0 0 0 0 0 0 0 0 0 1 22 50 239 478 976 1104 729 611 375 218 77 129 68 47 244 155 144 126 60 12 42 19 0 0 0 0 0 0 0 0
0 0 0 0 0 0 0 0 0 0 0 0 0 0 0 0 0 0 0 0 59 141 250 352 398 346 141 191 97 217 180 64 141 403 425 318 316 263 191 184 112 16 12 0 0 0 0 0 0
0 0 0 0 0 0 0 0 0 0 0 0 0 0 0 0 0 0 0 0 0 19 40 122 165 97 69 209 270 296 170 214 245 627 773 619 581 482 331 295 215 90 120 117 15 0 3 2 0
0 0 0 0 0 0 0 0 0 0 0 0 0 0 0 0 0 0 0 0 0 0 1 8 21 2 0 98 399 527 528 673 731 1067 1047 1059 1084 877 630 598 539 256 193 128 68 45 23 33 25
0 0 0 0 0 0 0 0 0 0 0 0 0 0 0 0 0 0 0 0 0 0 0 0 0 0 0 25 442 610 626 621 885 975 979 1010 1158 901 737 691 566 448 346 295 179 130 66 178 59
0 0 0 0 0 0 0 0 0 0 0 0 0 0 0 0 0 0 0 0 0 0 0 0 0 0 0 0 76 311 394 642 616 740 668 617 572 507 761 836 707 679 470 378 313 160 143 129 211
0 0 0 0 0 0 0 0 0 0 0 0 0 0 0 0 0 0 0 0 0 0 0 0 0 0 0 0 102 291 546 484 397 329 381 214 319 600 671 721 605 600 562 579 500 294 252 246 254
0 0 0 0 0 0 0 0 0 0 0 0 0 0 0 0 0 0 0 0 0 0 0 0 0 0 0 3 137 442 470 454 301 187 113 22 64 121 373 629 629 723 744 793 729 604 513 426 304
0 0 0 0 0 0 0 0 0 0 0 0 0 0 0 0 0 0 0 0 0 0 0 0 0 0 3 0 83 224 339 372 298 142 0 0 0 83 307 842 952 1001 1040 979 886 802 671 522 374
0 0 0 0 0 0 0 0 0 0 0 0 0 0 0 0 0 0 0 0 0 0 0 0 0 0 0 12 1 92 161 299 120 13 0 0 2 63 575 1131 1197 1154 1124 1071 887 845 733 465 232
0 0 0 0 0 0 0 0 0 0 0 0 0 0 0 0 0 0 0 0 0 0 0 0 0 0 0 0 36 20 117 113 41 0 0 3 173 424 932 1289 1291 1263 1175 856 838 719 566 433 354
0 0 0 1 0 0 0 0 0 0 0 0 0 0 0 0 0 0 0 0 0 0 0 0 0 0 0 0 0 0 0 23 31 32 36 223 364 727 1147 1225 1196 1051 903 763 690 571 527 474 337
0 0 0 0 8 1 0 0 0 0 0 0 0 0 0 0 0 0 0 0 0 0 0 0 0 0 0 0 0 0 0 24 50 84 200 388 562 910 1187 1164 1021 817 693 624 605 517 501 436 361
0 0 0 0 0 0 7 0 0 0 0 0 0 0 0 0 0 0 0 0 0 0 0 0 0 0 21 0 0 0 0 62 131 265 391 637 843 1076 1111 958 802 746 680 650 642 543 378 269 188

GFSSGP_con_mlcape_054.txt.gz
CAPE
0 0 0 0 0 0 0 0 0 0 0 0 0 0 0 0 0 0 0 0 0 0 88 778 837 673 496 227 104 24 0 0 0 0 5 13 18 1 0 0 0 0 0 0 0 0 0 0 0
0 0 0 0 0 0 0 0 0 0 0 0 0 0 0 0 0 0 0 0 0 0 66 256 848 454 438 179 104 41 27 25 21 1 0 0 0 0 0 0 0 0 0 0 0 0 0 0 0
0 0 0 0 0 0 0 0 0 0 0 0 0 0 0 0 18 0 0 0 0 0 68 199 817 301 267 150 115 73 63 45 42 34 9 0 0 0 0 0 0 0 0 0 0 0 0 0 0
0 0 0 0 0 0 0 0 0 0 0 0 0 0 0 0 49 45 1 0 0 0 82 216 966 425 184 129 129 81 61 46 49 43 19 0 0 0 0 0 0 0 0 0 0 0 0 0 0
0 0 0 0 0 0 0 0 0 0 0 0 0 0 0 20 42 24 0 0 0 0 54 230 871 478 239 168 157 93 35 34 53 55 30 9 0 0 0 0 0 0 0 0 0 0 0 0 0
0 0 0 0 0 0 0 0 0 0 0 0 0 0 0 0 40 0 0 0 0 0 19 282 844 737 237 218 195 125 59 66 60 67 57 22 4 0 0 0 0 0 0 0 0 0 0 0 0
0 0 0 0 0 0 0 0 0 0 0 0 0 0 0 0 34 0 0 0 0 0 4 220 478 610 349 358 273 181 129 93 72 87 95 46 6 0 0 0 0 0 0 0 0 0 0 0 0
0 0 0 0 0 0 0 0 0 0 0 0 0 0 0 38 0 0 0 0 0 0 0 119 345 431 268 428 486 388 246 138 165 159 115 68 16 1 1 0 0 0 0 0 0 0 0 0 0
0 0 0 0 0 0 0 0 0 0 0 0 0 0 0 175 35 0 0 0 0 0 0 80 107 207 195 163 615 741 557 460 253 317 292 142 71 121 65 2 0 0 0 0 0 0 0 0 0
0 0 0 0 0 0 0 0 0 0 0 0 0 0 0 0 118 69 0 0 0 0 0 1 81 73 89 86 224 540 630 709 508 360 447 317 149 92 56 48 2 0 0 0 0 0 5 41 7
0 0 0 0 0 0 0 0 0 0 0 0 0 0 0 0 0 178 4 0 0 0 0 0 1 59 5 2 30 104 206 509 551 401 308 343 133 120 162 20 62 1 0 0 0 0 0 3 11
0 0 0 0 0 0 0 0 0 0 0 0 0 0 0 0 0 0 121 0 0 0 0 0 4 3 0 0 0 0 3 60 93 156 241 60 13 0 7 0 0 0 0 0 0 0 0 0 0
0 0 0 0 0 0 0 0 0 0 0 0 0 0 0 0 0 0 0 0 24 0 0 0 0 1 0 0 0 0 0 0 0 3 41 29 2 0 0 0 0 0 0 0 0 0 0 0 0
0 0 0 0 0 0 0 0 0 0 0 0 0 0 0 0 0 0 0 0 0 59 22 12 0 0 0 0 0 0 0 0 0 0 0 0 0 0 0 0 0 0 0 0 0 0 0 0 0
0 0 0 0 0 0 0 0 0 0 0 0 0 0 0 0 0 0 0 0 0 0 199 149 7 0 0 0 0 0 0 0 0 0 0 0 0 0 0 0 0 0 0 0 0 0 0 0 0
0 0 0 0 0 0 0 0 0 0 0 0 0 0 0 0 0 0 0 0 0 77 219 312 157 2 0 0 0 0 0 0 0 0 0 0 0 0 0 0 0 0 0 0 0 0 0 0 0
0 0 0 0 0 0 0 0 0 0 0 0 0 0 0 0 0 0 0 0 0 74 301 471 486 167 52 1 0 0 0 0 0 0 0 2 0 0 0 0 0 0 0 0 0 0 0 0 0
0 0 0 0 0 0 0 0 0 0 0 0 0 0 0 0 0 0 0 0 0 0 10 373 741 716 522 203 42 0 0 0 0 63 7 29 41 30 40 26 4 0 0 6 3 0 0 0 0
0 0 0 0 0 0 0 0 0 0 0 0 0 0 0 0 0 0 0 0 0 0 0 0 203 683 636 521 302 147 24 85 17 131 134 187 172 165 170 153 87 64 107 174 55 8 5 0 0
0 0 0 0 0 0 0 0 0 0 0 0 0 0 0 0 0 0 0 0 0 0 0 0 0 39 266 430 386 288 207 111 154 229 374 342 393 356 387 312 269 248 207 165 103 45 24 0 0
0 0 0 0 0 0 0 0 0 0 0 0 0 0 0 0 0 0 0 0 0 0 0 0 0 0 0 15 226 249 210 211 334 415 500 684 611 631 642 574 512 400 240 275 164 92 79 181 0
0 0 0 0 0 0 0 0 0 0 0 0 0 0 0 0 0 0 0 0 0 0 0 0 0 0 0 0 1 121 199 210 275 361 561 778 871 1010 1037 843 688 414 305 276 213 100 105 22 117
0 0 0 0 0 0 0 0 0 0 0 0 0 0 0 0 0 0 0 0 0 0 0 0 0 0 0 0 0 0 0 112 264 251 435 552 752 930 897 753 484 426 380 390 287 186 112 59 108
0 0 0 0 0 0 0 0 0 0 0 0 0 0 0 0 0 0 0 0 0 0 0 0 0 0 0 0 0 0 21 82 59 51 262 470 502 462 580 600 573 540 524 445 361 274 255 233 134
0 0 0 0 0 0 0 0 0 0 0 0 0 0 0 0 0 0 0 0 0 0 0 0 0 0 0 0 0 0 7 50 3 77 244 340 326 220 131 268 227 254 367 432 458 538 430 246 321
0 0 0 0 0 0 0 0 0 0 0 0 0 0 0 0 0 0 0 0 0 0 0 0 0 0 0 0 0 0 19 84 229 226 253 359 277 92 98 127 223 491 694 787 756 699 569 517 582
0 0 0 0 0 0 0 0 0 0 0 0 0 0 0 0 0 0 0 0 0 0 0 0 0 0 0 0 0 0 0 27 114 302 314 378 281 81 109 195 446 877 1091 1035 884 858 771 696 513
0 0 0 0 0 0 0 0 0 0 0 0 0 0 0 0 0 0 0 0 0 0 0 0 0 0 0 0 0 0 0 0 32 147 211 302 194 126 175 424 849 1265 1165 1046 889 716 659 497 371
0 0 0 0 0 0 0 0 0 0 0 0 0 0 0 0 0 0 0 0 0 0 0 0 0 0 0 0 0 0 0 0 6 113 192 196 103 155 367 696 1212 1326 1237 983 724 634 517 493 410
0 0 0 0 0 0 0 0 0 0 0 0 0 0 0 0 0 0 0 0 0 0 0 0 0 0 0 0 0 0 0 0 0 37 130 114 165 465 696 1045 1319 1252 986 784 614 521 501 500 381

GFSSGP_con_mlcape_057.txt.gz
CAPE
0 0 0 0 0 0 0 0 0 0 0 0 0 0 0 0 0 0 18 22 1 0 379 1052 995 535 246 399 872 972 1010 1017 973 893 701 504 474 484 361 102 65 0 0 0 0 0 0 0 0
0 0 0 0 0 0 0 0 0 0 0 0 0 0 0 0 0 0 0 7 0 12 270 872 1085 827 344 141 160 425 577 640 640 443 178 142 204 98 8 0 0 0 0 0 0 0 0 0 0
0 0 0 0 0 0 0 0 0 0 0 0 0 0 0 0 0 0 12 0 0 41 342 823 1240 1136 500 197 95 82 102 82 75 51 31 34 3 0 0 0 0 0 0 0 0 0 0 0 0
0 0 0 0 0 0 0 0 0 0 0 0 0 0 0 0 0 48 40 0 0 68 246 749 1194 1196 795 333 134 87 66 24 4 0 0 0 0 0 0 0 0 0 0 0 0 0 0 0 0
0 0 0 0 0 0 0 0 0 0 0 0 0 0 0 0 51 62 24 0 0 46 190 446 958 1253 1008 549 254 129 123 45 7 0 0 0 0 0 0 0 0 0 0 0 0 0 0 0 0
0 0 0 0 0 0 0 0 0 0 0 0 0 0 0 0 54 51 9 0 0 56 180 411 886 1293 1214 849 464 271 182 88 23 3 0 0 0 0 0 0 0 0 0 0 0 0 0 0 0
0 0 0 0 0 0 0 0 0 0 0 0 0 0 0 0 60 16 0 0 1 91 143 453 617 1193 1299 1007 642 457 359 187 76 38 0 0 0 0 0 0 0 0 0 0 0 0 0 0 0
0 0 0 0 0 0 0 0 0 0 0 0 0 0 0 0 43 47 0 0 0 66 66 261 552 876 1080 992 746 651 602 491 208 150 55 21 29 0 0 0 0 0 0 0 0 0 0 0 0
0 0 0 0 0 0 0 0 0 0 0 0 0 0 0 0 52 74 30 0 0 5 118 307 592 832 875 716 852 795 838 740 534 462 341 210 218 249 168 19 1 0 0 0 0 0 0 0 0
0 0 0 0 0 0 0 0 0 0 0 0 0 0 0 0 0 4 100 1 0 0 39 270 655 720 926 743 899 920 897 920 867 856 908 693 665 620 316 198 15 0 0 0 0 0 12 8 0
0 0 0 0 0 0 0 0 0 0 0 0 0 0 0 0 0 0 0 18 0 0 0 59 415 614 684 513 823 993 982 1050 1015 987 924 912 716 480 473 317 211 96 38 3 2 0 0 3 15
0 0 0 0 0 0 0 0 0 0 0 0 0 0 0 0 0 0 0 0 7 0 0 42 130 309 377 504 597 629 622 835 555 540 644 574 210 220 399 301 234 232 68 32 22 1 0 10 13
0 0 0 0 0 0 0 0 0 0 0 0 0 0 0 0 0 0 0 0 33 0 0 0 0 33 261 371 317 420 364 352 257 235 362 383 162 117 207 188 172 98 92 34 14 1 4 0 0
0 0 0 0 0 0 0 0 0 0 0 0 0 0 0 0 0 0 0 0 0 2 4 0 0 11 35 73 137 119 226 143 166 147 228 325 161 96 35 35 62 30 30 16 2 4 0 0 0
0 0 0 0 0 0 0 0 0 0 0 0 0 0 0 0 0 0 0 0 0 0 3 34 5 1 0 0 0 43 69 72 26 55 60 68 143 24 0 0 2 10 11 7 0 0 0 0 0
0 0 0 0 0 0 0 0 0 0 0 0 0 0 0 0 0 0 0 0 0 0 10 56 135 13 17 4 1 0 3 0 0 0 8 4 6 0 0 0 0 0 0 0 0 0 0 0 0
0 0 0 0 0 0 0 0 0 0 0 0 0 0 0 0 0 0 0 0 0 0 0 282 439 90 104 16 5 4 0 0 0 0 0 0 0 0 0 0 0 0 0 0 0 3 3 4 0
0 0 0 0 0 0 0 0 0 0 0 0 0 0 0 0 0 0 0 0 0 0 0 0 140 423 354 11 7 0 4 0 0 0 0 0 0 1 2 0 1 0 0 2 22 41 53 42 22
0 0 0 0 0 0 0 0 0 0 0 0 0 0 0 0 0 0 0 0 0 0 0 0 0 869 1218 758 221 34 0 0 0 0 0 0 3 54 39 20 7 0 22 167 230 175 182 140 54
0 0 0 0 0 0 0 0 0 0 0 0 0 0 0 0 0 0 0 0 0 0 0 0 0 0 258 1011 1038 670 394 108 52 40 72 307 297 177 106 98 79 52 149 347 382 302 331 294 154
0 0 0 0 0 0 0 0 0 0 0 0 0 0 0 0 0 0 0 0 0 0 0 0 0 0 0 75 716 874 787 626 395 213 316 439 361 306 279 378 366 372 481 632 554 447 446 663 306
0 0 0 0 0 0 0 0 0 0 0 0 0 0 0 0 0 0 0 0 0 0 0 0 0 0 0 0 6 331 586 843 823 684 521 798 735 613 659 604 689 733 657 842 715 610 572 559 738
0 0 0 0 0 0 0 0 0 0 0 0 0 0 0 0 0 0 0 0 0 0 0 0 0 0 0 0 0 0 176 604 916 988 838 1069 1112 1116 1052 1101 1034 1047 1058 983 698 623 526 563 619
0 0 0 0 0 0 0 0 0 0 0 0 0 0 0 0 0 0 0 0 0 0 0 0 0 0 0 0 0 0 0 9 237 488 584 593 653 1060 1293 1385 1342 1360 1160 913 789 769 707 631 536
0 0 0 0 0 0 0 0 0 0 0 0 0 0 0 0 0 0 0 0 0 0 0 0 0 0 0 0 0 0 0 0 3 53 219 368 679 923 1313 1446 1455 1304 1087 1153 836 705 717 715 693
0 0 0 0 0 0 0 0 0 0 0 0 0 0 0 0 0 0 0 0 0 0 0 0 0 0 0 0 0 0 0 0 30 99 107 157 286 664 1118 1201 1412 1213 1125 767 730 820 918 855 839
0 0 0 0 0 0 0 0 0 0 0 0 0 0 0 0 0 0 0 0 0 0 0 0 0 0 0 0 0 0 0 0 17 254 322 223 386 696 946 1033 1009 902 846 787 1029 1294 1315 1094 941
0 0 0 0 0 0 0 0 0 0 0 0 0 0 0 0 0 0 0 0 0 0 0 0 0 0 0 0 0 0 0 0 0 78 338 306 567 708 821 763 711 830 859 1416 1559 1633 1529 1236 962
0 0 0 0 0 0 0 0 0 0 0 0 0 0 0 0 0 0 0 0 0 0 0 0 0 0 0 0 0 0 0 0 0 0 45 376 685 760 821 697 723 762 1272 1810 1735 1389 1159 931 751
0 0 0 5 2 0 1 0 0 0 0 0 0 0 0 0 0 0 0 0 3 0 0 0 0 0 0 0 0 0 0 0 0 0 0 400 593 758 754 799 959 1258 1876 1911 1631 1154 863 631 592

GFSSGP_con_mlcape_060.txt.gz
CAPE
0 0 0 0 0 0 0 0 0 0 0 0 0 0 0 0 0 0 98 92 19 25 532 624 379 577 1207 1298 1348 1130 1060 904 799 695 552 462 447 508 466 423 228 191 123 0 0 0 0 0 0
0 0 0 0 0 0 0 0 0 0 0 0 0 0 0 0 0 0 0 83 0 84 617 330 409 518 1197 1373 1323 1101 1112 1099 1072 842 725 525 435 550 440 130 74 71 14 0 0 0 0 0 0
0 0 0 0 0 0 0 0 0 0 0 0 0 0 0 0 0 0 33 105 9 142 601 471 338 394 971 1392 1242 1111 1147 1170 1030 822 656 452 273 218 67 0 0 0 0 0 0 0 0 0 0
0 0 0 0 0 0 0 0 0 0 0 0 0 0 0 0 0 51 163 135 24 233 326 1130 403 406 488 1177 1212 1133 1151 1058 860 667 289 133 143 15 0 0 0 0 0 0 0 0 0 0 0
0 0 0 0 0 0 0 0 0 0 0 0 0 0 0 0 0 35 210 190 26 210 198 1477 615 450 497 620 970 1047 951 830 602 232 114 92 21 0 0 0 0 0 0 0 0 0 0 0 0
0 0 0 0 0 0 0 0 0 0 0 0 0 0 0 0 0 12 155 166 32 120 189 981 1147 550 713 610 487 656 622 458 244 129 38 6 0 0 0 0 0 0 0 0 0 0 0 0 0
0 0 0 0 0 0 0 0 0 0 0 0 0 0 0 0 0 15 94 152 52 79 157 689 968 930 817 648 517 492 480 319 208 120 54 0 0 0 0 0 0 0 0 0 0 0 0 0 0
0 0 0 0 0 0 0 0 0 0 0 0 0 0 0 0 0 9 139 73 50 65 113 385 522 790 750 664 792 572 714 537 425 376 181 112 80 52 0 0 0 0 0 0 0 0 0 0 0
0 0 0 0 0 0 0 0 0 0 0 0 0 0 0 0 0 0 217 105 51 50 56 207 331 525 421 287 677 965 840 808 632 640 565 263 66 131 124 0 6 0 0 0 0 0 0 0 0
0 0 0 0 0 0 0 0 0 0 0 0 0 0 0 0 0 0 1 226 44 55 58 168 314 459 395 211 332 574 514 559 496 387 461 246 94 169 43 45 35 7 0 0 0 0 0 0 0
0 0 0 0 0 0 0 0 0 0 0 0 0 0 0 0 0 0 0 1 103 3 39 155 480 671 444 277 349 416 347 436 599 538 586 460 351 461 302 181 237 35 2 0 0 0 0 0 0
0 0 0 0 0 0 0 0 0 0 0 0 0 0 0 0 0 0 0 0 0 98 1 94 407 878 936 486 511 406 281 466 512 645 941 789 786 628 400 155 144 109 37 22 0 2 0 0 0
0 0 0 0 0 0 0 0 0 0 0 0 0 0 0 0 0 0 0 0 0 56 151 50 204 754 1005 800 429 457 394 453 508 487 870 730 525 411 357 251 177 109 82 35 57 2 0 0 2
0 0 0 0 0 0 0 0 0 0 0 0 0 0 0 0 0 0 0 0 0 6 158 137 150 401 707 812 586 619 613 561 667 400 463 833 495 353 301 386 265 140 95 33 21 12 5 6 0
0 0 0 0 0 0 0 0 0 0 0 0 0 0 0 0 0 0 0 0 0 2 10 215 219 340 384 521 757 536 408 465 500 311 597 718 758 520 417 223 165 94 92 118 59 27 17 5 8
0 0 0 0 0 0 0 0 0 0 0 0 0 0 0 0 0 0 0 0 0 0 0 3 250 193 558 522 405 240 70 177 128 210 257 552 768 519 306 156 95 37 64 40 29 38 50 84 81
0 0 0 0 0 0 0 0 0 0 0 0 0 0 0 0 0 0 0 0 0 0 0 159 796 248 323 601 337 343 233 198 24 115 110 134 288 190 191 114 16 22 14 12 52 59 152 260 267
0 0 0 0 0 0 0 0 0 0 0 0 0 0 0 0 0 0 0 0 0 0 0 0 251 850 366 551 589 307 120 123 47 11 0 5 61 111 149 70 28 1 8 18 90 193 402 425 493
0 0 0 0 0 0 0 0 0 0 0 0 0 0 0 0 0 0 0 0 0 0 0 0 0 168 1500 338 196 182 160 90 71 0 12 28 67 58 98 28 108 61 116 160 177 647 652 884 711
0 0 0 0 0 0 0 0 0 0 0 0 0 0 0 0 0 0 0 0 0 0 0 0 0 0 33 1304 1527 889 431 168 103 59 81 56 3 30 56 497 364 285 70 293 729 540 819 1133 1061
0 0 0 0 0 0 0 0 0 0 0 0 0 0 0 0 0 0 0 0 0 0 0 0 0 0 0 0 400 1712 1816 1657 1048 385 142 134 265 51 124 701 518 278 225 242 1067 1089 1130 1248 1064
0 0 0 0 0 0 0 0 0 0 0 0 0 0 0 0 0 0 0 0 0 0 0 0 0 0 0 0 0 105 1083 1414 1598 1612 1167 582 929 790 746 1014 686 800 1103 1023 1628 1703 1402 1535 1308
0 0 0 0 0 0 0 0 0 0 0 0 0 0 0 0 0 0 0 0 0 0 0 0 0 0 0 0 0 0 8 174 742 1466 1784 1445 1366 1686 1306 1470 1641 1783 1635 1565 1817 1878 1720 1487 1309
0 0 0 0 0 0 0 0 0 0 0 0 0 0 0 0 0 0 0 0 0 0 0 0 0 0 0 0 0 0 1 12 106 479 1486 1772 1774 2216 2041 1758 2032 2164 2158 1994 2111 2216 1880 1744 1521
0 0 0 0 0 0 0 0 0 0 0 0 0 0 0 0 0 0 0 0 0 0 0 0 0 0 0 0 0 0 4 57 44 180 378 1072 1258 1434 1857 2170 2179 2095 2470 2396 2434 2226 1953 1866 1728
8 9 6 0 0 0 0 0 0 0 0 0 0 0 0 0 0 0 0 0 0 0 0 0 0 0 0 0 0 0 0 0 31 48 95 222 397 613 1136 1775 2256 2515 2540 2646 2360 2142 1864 1684 1747
0 0 6 3 0 0 0 0 0 0 0 0 0 0 0 0 0 0 0 0 0 0 0 0 0 0 0 0 0 0 0 0 0 115 352 372 589 681 1098 1320 1890 2242 2501 2466 2345 1702 1720 1812 1995
0 2 17 6 0 0 0 0 0 0 0 0 0 0 0 0 0 0 0 0 0 0 0 0 0 0 0 0 0 0 0 0 0 40 282 589 976 1014 791 1327 2021 2345 2397 2183 1992 1659 2150 2288 2272
0 6 20 10 12 10 0 0 0 0 0 0 0 0 0 0 0 0 0 0 0 0 0 0 0 0 0 0 0 0 0 0 0 0 255 653 1318 1326 1241 1439 2008 2159 2020 1921 2116 2222 2467 2536 2221
1 26 31 17 7 8 9 0 0 0 0 0 0 1 0 0 0 0 0 0 0 0 0 0 0 0 0 0 0 0 0 0 0 0 176 554 743 1373 1530 1729 1810 1732 1662 2171 2383 2572 2328 2121 1809

GFSSGP_con_mlcape_063.txt.gz
CAPE
0 0 0 0 0 0 0 0 0 0 0 0 0 0 0 0 0 5 10 18 0 438 300 535 218 553 779 1356 1205 883 522 313 282 459 475 388 598 738 651 358 271 368 190 43 0 0 0 0 0
0 0 0 0 0 0 0 0 0 0 0 0 0 0 0 0 0 0 0 65 0 756 575 300 448 432 790 1424 1342 1038 803 711 506 575 505 505 730 599 457 180 159 161 66 0 0 0 0 0 0
0 0 0 0 0 0 0 0 0 0 0 0 0 0 0 0 0 0 0 126 18 535 747 369 594 291 664 1535 1596 1133 997 915 681 717 596 591 632 424 307 126 69 66 28 0 0 0 0 0 0
0 0 0 0 0 0 0 0 0 0 0 0 0 0 0 0 0 0 42 195 161 296 731 857 554 309 570 1202 1646 1349 1218 1063 979 914 750 590 451 371 189 39 24 17 0 0 0 0 0 0 0
0 0 0 0 0 0 0 0 0 0 0 0 0 0 0 0 0 0 180 261 237 171 677 1163 471 544 474 993 1485 1542 1348 1231 1245 1000 834 483 312 211 54 0 0 0 0 0 0 0 0 0 0
0 0 0 0 0 0 0 0 0 0 0 0 0 0 0 0 0 0 232 330 260 193 475 1631 514 707 521 764 1144 1387 1432 1334 1285 1114 856 403 188 61 0 0 0 0 0 0 0 0 0 0 0
0 1 0 0 0 2 0 0 0 0 0 0 0 0 0 0 0 0 208 270 174 221 324 1593 521 898 639 514 902 1107 1183 1211 1111 1057 773 367 156 5 0 0 0 0 0 0 0 0 0 0 0
0 0 0 0 0 1 1 0 0 0 0 0 0 0 0 0 0 0 70 219 274 201 250 980 365 625 560 590 513 745 954 933 803 696 572 344 124 32 1 0 0 0 0 0 0 0 0 0 0
0 0 0 0 9 9 6 0 0 0 0 2 0 0 0 0 0 0 0 256 209 185 187 547 350 417 323 226 656 507 518 603 579 462 453 208 20 60 92 0 2 0 0 0 0 0 0 0 0
0 0 0 0 16 29 23 13 0 0 0 0 0 0 0 0 0 0 0 94 197 225 179 337 467 406 299 124 387 344 282 245 242 144 243 114 19 83 16 7 4 1 0 0 0 0 0 0 0
0 0 0 0 14 21 26 15 12 4 0 0 2 0 0 0 0 0 0 0 209 223 170 186 610 730 396 160 335 303 203 213 269 220 288 214 74 119 115 108 87 65 22 0 0 0 0 0 0
0 0 0 0 0 11 3 36 7 5 0 0 0 0 0 0 0 0 0 0 15 110 162 109 491 765 857 222 263 371 134 282 249 325 499 649 290 410 513 131 206 246 46 33 0 22 21 1 0
0 0 0 0 0 0 0 0 0 0 0 0 0 0 0 0 0 0 0 0 0 26 181 137 361 1012 1181 1320 342 376 228 300 287 368 627 665 615 653 783 496 165 152 131 81 99 35 14 9 20
0 0 0 0 0 0 0 0 0 0 0 0 0 0 0 0 0 0 0 0 0 20 175 187 169 782 1397 1400 1335 888 721 432 498 440 670 1155 841 882 554 506 343 198 84 63 44 84 57 50 62
0 0 0 0 0 0 0 0 0 0 0 0 0 0 0 0 0 0 0 0 0 31 185 241 235 440 1269 1677 1509 1165 849 629 656 652 933 1300 1248 917 650 387 372 201 153 185 110 86 86 84 95
0 0 0 0 0 0 0 0 0 0 0 0 0 0 0 0 0 0 0 0 0 0 0 0 210 368 835 1287 1323 1119 880 811 683 630 623 887 1391 1053 907 360 274 156 134 124 170 142 128 122 250
0 0 0 0 0 0 0 0 0 0 0 0 0 0 0 0 0 0 0 0 0 0 0 46 163 493 899 870 1217 1100 836 581 503 433 482 873 1070 1196 936 588 206 309 97 122 166 196 255 321 399
0 0 0 0 0 0 0 0 0 0 0 0 0 0 0 0 0 0 0 0 0 0 0 0 161 1068 787 1235 1251 717 678 463 417 324 233 452 827 924 935 129 302 360 156 82 85 264 422 430 710
0 0 0 0 0 0 0 0 0 0 0 0 0 0 0 0 0 0 0 0 0 0 0 0 0 220 1049 284 797 768 624 498 511 395 147 402 474 578 485 442 409 385 239 38 501 348 221 730 1194
0 0 0 0 0 0 0 0 0 0 0 0 0 0 0 0 0 0 0 0 0 0 0 0 0 5 114 1597 479 541 482 447 599 527 340 336 399 610 621 476 210 303 205 416 714 260 488 1063 1410
0 0 0 0 0 0 0 0 0 0 0 0 0 0 0 0 0 0 0 0 0 0 0 0 0 0 0 1 561 1798 1130 336 234 423 328 357 561 562 513 568 286 501 579 748 956 492 881 391 1154
0 0 0 0 0 0 0 0 0 0 0 0 0 0 0 0 0 0 0 0 0 0 0 0 0 0 0 0 0 44 1543 1096 1090 1260 1138 770 476 586 407 364 429 176 485 830 830 1323 1220 1665 1362
0 0 0 0 0 0 0 0 0 0 0 0 0 0 0 0 0 0 0 0 0 0 0 0 0 0 0 0 11 0 16 132 1442 2179 2272 2261 1789 948 801 364 280 705 1195 1399 1417 1778 2537 2044 2232
0 0 0 0 0 0 0 0 0 0 0 0 0 0 0 0 0 0 0 0 0 0 0 0 0 0 0 0 0 1 25 78 98 205 804 2310 1435 1250 1243 1205 1000 854 1564 1773 2696 2275 2875 2626 2436
1 2 0 8 2 0 0 0 0 0 0 0 0 0 0 0 0 0 0 0 0 0 0 0 0 0 0 0 0 0 0 15 116 254 83 497 1683 2212 2403 2257 2010 2249 2746 2981 2729 2903 3021 3157 2621
1 6 8 29 5 0 0 0 0 0 0 0 0 0 0 0 0 0 0 0 0 0 0 0 0 0 0 0 0 0 0 0 0 4 105 49 157 699 2037 3259 2808 2811 2958 3295 2980 3045 3097 3030 2793
11 2 8 0 0 0 0 0 1 0 0 0 0 0 0 0 0 0 0 0 0 0 0 0 0 0 0 0 0 0 0 0 0 0 78 297 409 325 570 1927 3227 3027 3002 2966 3231 3202 3185 2801 2728
14 17 35 29 4 4 2 3 1 0 0 0 0 0 0 0 0 0 0 0 0 0 0 0 0 0 0 0 0 0 0 0 0 1 33 86 342 1012 775 1090 2011 2359 2473 3190 3442 3116 2946 2520 2227
14 9 7 29 23 11 3 0 0 0 0 0 0 0 0 0 0 0 0 0 0 0 0 0 0 0 0 0 0 0 0 0 0 0 0 41 355 716 1090 1353 1284 1619 2378 3221 3325 3022 2408 2299 2496
58 52 90 33 8 8 3 0 0 0 0 0 0 0 16 4 0 0 0 0 0 0 0 0 0 0 0 0 0 0 0 0 0 0 0 8 266 972 1474 1467 1339 1648 2516 3029 3122 2783 1893 2423 2536

GFSSGP_con_mlcape_069.txt.gz
CAPE
0 0 0 0 0 0 0 0 0 0 0 0 0 0 2 39 78 24 259 235 10 74 754 1698 1371 969 742 482 277 93 56 46 62 38 92 214 177 177 151 154 200 160 65 0 0 0 0 0 0
0 0 0 0 0 0 0 0 0 0 0 0 0 0 0 0 0 0 374 209 0 19 511 1231 1470 1113 748 536 302 102 105 111 138 45 90 256 282 246 124 73 43 4 0 0 0 0 0 0 0
0 0 0 0 0 0 0 0 0 0 0 0 0 0 0 0 0 0 186 436 28 10 208 973 1413 1175 865 615 331 237 155 173 236 145 171 261 339 158 0 0 0 0 0 0 0 0 0 0 0
0 0 0 0 0 0 0 0 0 0 0 0 0 0 0 0 0 0 171 690 404 0 81 795 1228 1265 844 705 504 368 285 288 383 342 318 254 305 41 0 0 0 0 0 0 0 0 0 0 0
0 0 0 0 0 0 0 0 0 0 0 0 0 0 0 0 0 0 12 728 668 114 124 425 1002 1274 1099 793 709 558 586 493 533 531 488 395 286 43 0 0 0 0 0 0 0 0 0 0 0
0 0 0 0 0 0 0 0 0 0 0 0 0 0 0 0 0 0 4 59 897 431 381 184 768 1135 1382 1020 869 830 889 800 741 691 613 460 273 110 0 0 0 0 0 0 0 0 0 0 0
0 0 0 0 0 0 0 0 0 0 0 0 0 0 0 0 0 0 0 51 574 794 689 164 599 1170 1523 1384 974 1087 1079 1062 888 815 689 498 254 84 0 0 0 0 0 0 0 0 0 0 0
0 0 0 0 0 0 0 0 0 0 0 0 0 0 0 0 0 0 0 0 748 1100 928 315 213 933 1500 1672 1330 1155 1150 1133 1058 969 762 492 262 94 0 0 0 0 0 0 0 0 0 0 0
0 0 0 0 0 0 0 0 0 0 0 0 0 0 0 0 0 0 0 0 978 1185 909 626 213 504 1097 1427 1695 1234 1213 1175 1127 1069 824 468 127 61 0 0 0 0 0 0 0 0 0 0 0
0 0 0 0 0 0 0 0 0 0 0 0 0 0 1 0 0 0 0 0 71 1460 1089 687 293 189 658 1185 1491 1254 1249 1170 1056 936 701 279 72 10 0 0 0 0 0 0 0 0 0 0 0
0 0 0 0 0 0 0 0 0 0 0 0 0 0 0 0 0 0 0 0 0 74 812 615 280 171 262 1048 913 1171 1061 961 908 784 459 170 57 34 6 0 0 0 0 0 0 0 0 0 0
0 0 0 0 0 0 0 0 0 0 0 0 0 0 0 0 0 0 0 0 0 4 243 557 460 111 102 582 563 632 823 756 646 505 300 88 1 3 81 26 29 2 0 0 0 0 0 0 0
0 0 0 0 0 0 0 0 0 0 0 1 0 0 0 0 0 0 0 0 0 0 70 539 595 305 146 527 348 233 123 235 213 225 266 133 0 2 106 179 93 55 36 70 8 0 0 0 10
0 0 0 0 0 0 0 0 0 0 0 0 2 0 0 0 0 0 0 0 0 0 50 769 827 572 428 675 579 229 231 151 141 106 206 336 135 50 187 410 333 249 366 264 71 12 9 29 69
0 0 0 0 0 0 0 0 0 0 0 0 0 0 0 0 0 0 0 0 0 0 308 339 1334 1207 670 1461 1417 1129 265 368 305 313 271 284 560 196 216 528 334 593 701 466 328 214 148 173 191
0 0 0 0 0 0 0 0 0 0 0 0 0 0 0 0 0 0 0 0 0 5 27 394 1243 1721 1009 908 941 1184 1152 585 388 481 491 500 372 912 650 561 826 564 432 431 203 298 146 52 55
0 0 0 0 0 0 0 0 0 0 0 0 0 0 0 0 0 0 0 0 0 0 2 114 458 1580 1479 1164 1219 1015 1186 1193 823 557 954 859 720 699 1236 1204 935 770 553 417 407 317 130 55 54
0 0 0 0 0 0 0 0 0 0 0 0 0 0 0 0 0 0 0 0 0 0 0 0 375 1101 1512 1565 1371 1035 1268 1126 956 1016 1016 1628 1318 1003 1012 1061 961 791 672 612 361 310 310 218 132
0 0 0 0 0 0 0 0 0 0 0 0 0 0 0 0 0 0 0 0 0 0 0 0 120 1132 1475 1217 817 718 456 953 943 766 814 632 1393 1528 1193 977 944 1125 757 441 342 233 165 172 300
0 0 0 0 0 0 0 0 0 0 0 0 0 0 0 0 0 0 0 0 0 0 0 0 11 948 1167 1360 1148 823 787 708 834 812 612 439 489 892 1337 1248 958 856 936 800 464 216 82 236 157
0 0 0 0 0 0 0 0 0 0 0 0 0 0 0 0 0 0 0 0 0 0 0 0 0 39 319 906 1390 981 834 815 672 612 516 314 349 266 656 1050 1139 948 534 425 530 303 54 26 215
0 0 0 0 0 0 0 0 0 0 0 0 0 0 0 0 0 0 0 0 0 0 0 0 0 0 0 9 528 1180 652 199 380 626 647 728 588 428 394 400 892 970 864 603 272 232 86 335 427
0 0 0 0 0 0 0 0 0 0 0 0 0 0 0 0 0 0 0 0 0 0 0 0 0 0 0 0 5 50 387 768 763 758 534 348 347 518 402 346 554 607 597 583 350 192 240 340 637
0 0 0 0 0 0 0 0 0 0 0 0 0 0 0 0 0 0 0 0 0 0 0 0 0 0 0 0 0 0 0 71 189 252 326 647 933 677 635 507 436 523 640 621 581 399 350 673 699
10 0 0 0 0 0 0 25 0 0 0 0 0 0 0 0 0 0 0 0 0 0 0 0 0 0 0 0 0 0 0 0 0 0 46 92 142 179 301 549 634 668 648 617 495 250 410 743 1080
1 2 0 0 0 0 2 0 0 0 0 0 0 0 0 0 0 0 0 0 0 0 0 0 0 0 0 0 0 0 0 0 0 0 0 0 0 12 98 179 203 13 7 226 425 885 867 1050 1061
24 0 0 0 0 0 0 0 0 0 0 0 0 0 0 0 0 0 0 0 0 0 0 0 0 0 0 0 0 0 0 0 0 0 0 0 0 0 0 367 159 175 264 510 47 95 992 1210 1000
72 50 3 0 1 0 0 0 0 0 0 8 0 0 0 0 0 0 0 0 0 0 0 0 0 0 0 0 0 0 0 0 0 0 0 0 0 0 0 0 31 177 734 867 161 417 1204 1389 1384
18 0 0 0 1 0 0 0 0 9 1 0 0 0 0 0 0 0 0 0 0 0 0 0 0 0 0 0 0 0 0 0 0 0 0 0 0 0 0 1 17 0 0 1129 1419 1755 2203 2335 2371
8 34 0 0 0 0 0 0 0 0 0 1 0 0 0 0 0 0 0 0 0 0 0 0 0 0 0 0 0 4 0 0 0 0 0 0 9 3 0 0 1 121 230 234 1723 2447 2656 2898 2862

GFSSGP_con_mlcape_072.txt.gz
CAPE
0 0 0 0 0 0 0 0 0 0 0 0 0 0 14 34 38 34 177 242 296 409 1181 1192 1301 832 440 131 16 4 0 0 0 1 12 26 4 14 35 84 144 100 0 0 0 0 0 0 0
0 0 0 0 0 0 0 0 0 0 0 0 0 0 3 24 73 275 270 417 23 351 1169 1153 1294 985 479 168 27 45 28 0 0 28 86 59 11 13 6 3 4 0 0 0 0 0 0 0 0
0 0 0 0 0 0 0 0 0 0 0 0 0 0 0 1 2 43 135 165 104 453 1011 1104 1237 1026 629 236 69 63 129 38 0 142 209 147 56 8 0 0 0 0 0 0 0 0 0 0 0
0 0 0 0 0 0 0 0 0 0 0 0 0 0 0 0 0 25 94 28 13 301 889 1231 1276 1062 754 314 151 153 208 168 77 141 307 270 115 0 0 0 0 0 0 0 0 0 0 0 0
0 0 0 0 0 0 0 0 0 0 0 0 0 0 0 0 0 209 172 5 0 100 658 1239 1138 1114 935 532 340 283 342 400 235 147 275 390 126 0 0 0 0 0 0 0 0 0 0 0 0
0 0 0 0 0 0 0 0 0 0 0 0 0 0 0 0 0 2 374 11 10 57 690 1228 1040 1202 1155 758 547 417 442 613 463 349 311 345 121 18 0 0 0 0 0 0 0 0 0 0 0
0 0 0 0 0 0 0 0 0 0 0 0 0 0 0 0 0 0 7 491 8 218 283 1025 1333 1267 1232 1051 721 539 477 577 648 496 380 299 144 48 0 0 0 0 0 0 0 0 0 0 0
0 0 0 0 0 0 0 0 0 0 0 0 0 0 0 0 0 0 46 558 339 445 369 628 841 1161 1153 1379 1010 740 606 583 603 593 466 322 119 43 0 0 0 0 0 0 0 0 0 0 0
0 0 0 0 0 0 0 0 0 0 0 0 0 0 0 0 0 0 70 638 872 822 513 809 586 636 1080 1268 1356 1099 873 720 727 681 541 310 114 63 0 0 0 0 0 0 0 0 0 0 0
0 0 0 0 0 0 0 0 0 0 0 0 0 0 0 0 0 0 0 237 1011 982 586 574 1000 729 588 995 1319 1409 1317 1070 974 872 637 185 84 34 0 0 0 0 0 0 0 0 0 0 0
0 0 0 0 0 0 0 0 0 0 0 0 0 0 0 0 0 0 0 0 173 1058 870 413 613 959 632 862 1166 1252 1418 1178 997 838 547 177 62 26 0 0 0 0 0 0 0 0 0 0 0
0 0 0 0 0 0 0 0 0 0 0 0 0 0 0 0 0 0 0 0 6 559 1113 852 342 642 825 507 797 1139 1094 945 876 828 501 188 8 0 0 0 0 0 0 0 0 0 0 0 0
0 0 0 0 0 0 0 0 0 0 0 0 0 0 0 0 0 0 0 0 13 16 388 787 667 333 481 749 500 591 741 848 804 705 517 235 2 0 0 0 5 11 5 0 2 0 0 0 0
0 0 0 0 0 0 0 0 0 0 0 0 0 0 0 0 0 0 0 0 0 4 26 646 750 330 314 709 543 327 459 646 626 538 450 251 18 0 0 0 50 44 40 19 32 122 10 0 0
0 0 0 0 0 0 0 0 0 0 0 0 0 1 0 0 0 0 0 0 0 4 208 317 707 374 267 617 441 392 316 306 316 352 316 254 49 0 0 0 169 200 146 152 208 268 159 56 19
0 0 0 0 0 0 0 0 0 0 0 0 0 0 0 0 0 0 0 0 0 67 425 532 952 650 491 661 665 403 304 223 151 121 167 200 131 13 0 25 147 339 472 614 518 426 343 252 180
0 0 0 0 0 0 0 0 0 0 0 0 0 0 0 0 0 0 0 0 3 30 257 706 1242 1250 762 1139 1195 904 460 409 344 278 178 179 203 239 86 33 217 509 512 520 445 364 331 198 121
0 0 0 0 0 0 0 0 0 0 0 0 0 0 0 0 0 0 0 0 0 7 76 298 913 1603 1360 1612 1710 1464 1171 705 493 436 448 462 420 421 601 644 564 516 793 785 598 411 393 319 181
0 0 0 0 0 0 0 0 0 0 0 0 0 0 0 0 0 0 0 0 0 0 0 0 231 1190 1691 1820 1494 1225 1492 1330 1051 765 733 874 747 690 716 828 1110 903 808 775 640 483 455 350 311
0 0 0 0 0 0 0 0 0 0 0 0 0 0 0 0 0 0 0 0 0 0 0 0 29 710 1110 1619 1730 1275 1078 1170 1195 913 793 853 1403 1268 1035 914 935 988 919 890 762 475 340 307 228
0 0 0 0 0 0 0 0 0 0 0 0 0 0 0 0 0 0 0 0 0 0 0 0 0 55 456 791 1303 1339 1013 851 786 890 945 712 543 1204 1570 1427 1201 988 796 639 644 707 528 221 232
0 0 0 0 0 0 0 0 0 0 0 0 0 0 0 0 0 0 0 0 0 0 0 0 0 0 0 0 178 1126 927 732 624 584 706 676 644 447 486 657 626 853 1082 806 596 603 422 128 92
0 0 0 0 0 0 0 0 0 0 0 0 0 0 0 0 0 0 0 0 0 0 0 0 0 0 0 0 0 10 390 581 643 752 475 663 787 606 521 543 761 852 634 636 614 584 413 245 193
0 0 0 0 0 0 0 0 0 0 0 0 0 0 0 0 0 0 0 0 0 0 0 0 0 0 0 0 0 0 0 31 185 300 413 473 575 477 506 401 411 405 416 410 633 595 436 316 337
2 5 0 0 0 0 0 0 0 0 0 0 0 0 0 0 0 0 0 0 0 0 0 0 0 0 0 0 0 0 0 0 0 0 13 81 204 334 569 707 550 581 553 298 715 665 538 550 455
0 8 5 6 0 0 0 0 0 0 0 0 0 0 0 0 0 0 0 0 0 0 0 0 0 0 0 0 0 0 0 0 0 0 0 0 0 6 160 226 275 389 623 732 791 759 691 506 398
0 0 13 0 0 0 0 0 0 0 0 0 0 0 0 0 0 0 0 0 0 0 0 0 0 0 0 0 0 0 0 0 0 0 0 0 0 0 0 0 12 272 126 177 281 157 61 178 102
10 0 1 0 0 0 0 0 0 0 0 0 0 0 0 0 0 0 0 0 0 0 0 0 0 0 0 0 0 0 0 0 0 0 0 0 0 0 0 0 7 6 66 182 293 303 418 83 0
6 6 0 10 10 13 0 0 3 2 0 0 0 0 0 0 0 0 0 0 0 0 0 0 0 0 0 0 0 0 0 0 0 0 0 0 0 0 5 5 5 3 15 33 95 187 697 594 18
32 9 2 0 0 3 0 0 0 0 5 13 0 2 0 0 0 0 0 0 0 0 0 0 0 0 0 0 0 0 0 0 0 0 0 0 0 0 0 0 0 8 7 9 18 309 241 455 483

GFSSGP_con_mlcape_075.txt.gz
CAPE
0 0 0 0 0 0 0 0 0 0 0 0 0 2 7 13 3 6 80 57 201 370 968 1274 782 509 181 49 26 9 60 192 269 250 217 187 181 201 148 149 150 95 0 0 0 0 0 0 0
0 0 0 0 0 0 0 0 0 0 0 0 0 0 1 1 84 173 207 376 431 503 929 1251 838 560 224 56 0 10 24 72 105 130 105 80 49 39 11 13 11 0 0 0 0 0 0 0 0
0 0 0 0 0 0 0 0 0 0 0 0 0 0 0 0 17 124 131 461 552 448 904 1177 931 551 309 76 14 3 3 32 81 86 55 24 10 0 0 0 0 0 0 0 0 0 0 0 0
0 0 0 0 0 0 0 0 0 0 0 0 0 0 0 0 0 36 374 574 211 541 970 1342 919 541 352 169 101 65 13 34 154 132 104 80 29 0 0 0 0 0 0 0 0 0 0 0 0
0 0 0 0 0 0 0 0 0 0 0 0 0 0 0 0 27 158 175 507 21 384 1035 1448 1032 600 438 328 260 205 73 29 185 225 232 92 21 13 0 0 0 0 0 0 0 0 0 0 0
0 0 0 0 0 0 0 0 0 0 0 0 0 0 0 0 23 197 49 57 183 206 924 1359 1249 706 464 414 404 412 177 46 173 342 300 145 16 8 7 0 0 0 0 0 0 0 0 0 0
0 0 0 0 0 0 0 0 0 0 0 0 0 0 0 0 0 86 108 8 155 642 972 1200 1444 1043 637 476 463 504 364 147 88 213 278 92 25 7 0 0 0 0 0 0 0 0 0 0 0
0 0 0 0 0 0 0 0 0 0 0 0 0 0 0 0 0 4 235 32 89 562 1057 1337 1260 1257 891 630 508 502 530 347 125 94 120 104 49 17 0 0 0 0 0 0 0 0 0 0 0
0 0 0 0 0 0 0 0 0 0 0 0 0 0 0 0 82 89 315 268 194 473 987 1308 1291 1225 838 747 680 557 633 573 330 175 90 88 69 48 7 0 0 0 0 0 0 0 0 0 0
0 0 0 0 0 0 0 0 0 0 0 0 0 0 0 0 10 157 362 473 411 250 659 1141 1174 1150 927 1004 901 734 773 825 666 454 237 78 38 27 0 0 0 0 0 0 0 0 0 0 0
0 0 0 0 0 0 0 0 0 0 0 0 0 0 0 0 0 22 274 372 638 616 434 818 1042 1014 898 1032 1150 874 972 872 821 619 280 79 31 37 15 0 0 0 0 0 0 0 0 0 0
0 0 0 0 0 0 0 0 0 0 0 0 0 0 0 0 0 0 11 313 813 901 537 503 695 759 885 872 986 982 965 874 780 747 446 90 9 0 0 0 0 0 0 0 0 0 0 0 0
0 0 0 0 0 0 0 0 0 0 0 0 0 0 0 0 0 0 0 41 716 904 900 593 654 562 790 768 886 896 1005 974 849 704 555 267 19 0 0 0 0 0 0 0 0 0 0 0 0
0 0 0 0 0 0 0 0 0 0 0 0 0 0 0 0 0 0 0 0 201 556 889 949 694 545 633 656 674 806 1002 1043 759 637 635 414 127 1 0 0 0 0 0 4 0 2 6 42 4
0 0 0 0 0 0 0 0 0 0 0 0 0 0 0 0 0 0 0 0 9 264 674 812 1003 816 471 514 490 565 865 802 726 680 683 582 284 61 0 0 0 0 44 64 83 76 118 169 109
0 0 0 0 0 0 0 0 0 0 0 0 0 0 0 0 0 0 0 0 0 5 173 467 938 898 624 713 425 378 459 548 650 649 576 574 432 179 19 0 0 1 85 202 220 318 476 364 292
0 0 0 0 0 0 0 0 0 0 0 0 0 0 0 0 0 0 0 0 0 2 76 324 764 837 653 624 738 577 399 472 538 545 498 477 454 253 33 0 8 26 127 312 446 501 473 379 249
0 0 0 0 0 0 0 0 0 0 0 0 0 0 0 0 0 0 0 0 0 49 281 411 692 849 672 808 854 680 373 201 314 294 325 373 350 258 101 29 19 64 235 388 493 543 490 366 316
0 0 0 0 0 0 0 0 0 0 0 0 0 0 0 0 0 0 0 0 1 138 566 915 1180 1205 1029 1123 1137 1034 655 230 267 359 328 410 383 262 229 191 229 181 227 397 645 724 643 501 383
0 0 0 0 0 0 0 0 0 0 0 0 0 0 0 0 0 0 0 0 8 15 153 634 1245 1645 1720 1393 1442 1370 1115 765 614 484 239 472 617 563 456 468 622 785 853 870 830 692 617 473 359
0 0 0 0 0 0 0 0 0 0 0 0 0 0 0 0 0 0 0 0 0 0 0 12 529 1112 1432 1671 1477 1212 930 745 887 868 740 693 1093 1000 913 830 817 833 1017 1016 989 853 655 464 348
0 0 0 0 0 0 0 0 0 0 0 0 0 0 0 0 0 0 0 0 0 0 0 0 19 117 416 719 1146 1235 1205 1071 728 645 674 800 716 764 1197 960 930 906 840 1001 831 885 757 568 457
0 0 0 0 0 0 0 0 0 0 0 0 0 0 0 0 0 0 0 0 0 0 0 0 0 0 0 0 0 0 318 800 703 607 605 426 500 573 560 491 206 343 388 421 310 443 666 498 378
0 0 0 0 0 0 0 0 0 0 0 0 0 0 0 0 0 0 0 0 0 0 0 0 0 0 0 0 0 0 0 0 57 194 246 370 453 476 504 533 546 380 134 59 5 88 480 539 373
0 2 0 0 0 0 0 0 0 0 0 0 0 0 0 0 0 0 0 0 0 0 0 0 0 0 0 0 0 0 0 0 0 0 0 19 104 194 333 444 561 488 434 511 505 355 576 274 108
0 0 8 8 0 0 0 0 0 0 0 2 0 0 0 0 0 0 0 0 3 0 0 0 0 0 0 0 0 0 0 0 0 0 0 0 0 0 39 97 160 339 502 640 750 608 543 463 319
8 0 17 2 0 0 0 0 0 0 0 0 0 0 0 0 0 0 0 0 1 0 0 0 0 0 0 0 0 0 0 0 0 0 0 0 0 0 0 0 0 2 228 506 545 579 617 477 410
31 23 21 13 0 0 0 0 0 0 2 0 0 0 0 0 0 0 0 0 0 0 0 0 0 0 0 0 0 0 0 0 0 0 0 0 0 0 0 0 0 8 68 95 136 171 268 242 205
0 4 5 0 0 0 0 0 6 1 0 0 0 0 0 0 0 0 0 0 0 0 0 0 0 0 0 0 0 0 0 0 0 0 0 0 0 0 0 0 0 0 0 7 29 41 107 142 194
0 0 1 0 0 4 5 0 0 0 0 0 0 0 0 0 0 0 0 0 0 0 0 0 0 0 0 0 0 0 0 0 0 0 0 0 0 0 0 0 0 0 0 0 0 35 87 130 77

GFSSGP_con_mlcape_078.txt.gz
CAPE
0 0 0 0 0 0 0 0 0 0 0 0 0 0 1 3 0 0 86 127 60 160 787 975 724 468 330 244 346 485 682 681 581 526 487 360 142 161 189 175 158 154 70 0 0 0 0 0 0
0 0 0 0 0 0 0 0 0 0 0 0 0 0 0 0 53 151 184 380 237 304 857 828 721 443 376 253 156 286 399 532 586 530 416 233 162 189 230 158 112 47 0 0 0 0 0 0 0
0 0 0 0 0 0 0 0 0 0 0 0 0 0 0 0 2 131 142 349 496 446 1073 980 916 530 364 232 82 103 285 356 410 375 293 214 221 287 169 53 25 0 0 0 0 0 0 0 0
0 0 0 0 0 0 0 0 0 0 0 0 0 0 0 0 0 48 577 573 383 436 1066 1229 955 507 349 241 87 62 134 175 188 174 194 228 222 79 19 0 0 0 0 0 0 0 0 0 0
0 0 0 0 0 0 0 0 0 0 0 0 0 0 0 0 50 273 585 703 163 352 857 1439 1066 567 328 247 166 111 142 149 132 198 203 142 65 22 0 0 0 0 0 0 0 0 0 0 0
0 0 0 0 0 0 0 0 0 0 0 0 0 0 0 0 126 267 530 534 508 267 755 1301 1176 619 375 276 245 215 191 170 168 200 139 69 48 10 0 0 0 0 0 0 0 0 0 0 0
0 0 0 0 0 0 0 0 0 0 0 0 0 0 0 0 0 288 291 476 482 587 1029 1136 1067 816 462 364 227 227 219 235 215 165 127 25 1 0 0 0 0 0 0 0 0 0 0 0 0
0 0 0 0 0 0 0 0 0 0 0 0 0 0 0 0 0 228 224 270 207 403 973 1127 1127 978 546 498 324 262 198 234 276 193 133 25 0 3 11 0 0 0 0 0 0 0 0 0 0
0 0 0 0 0 0 0 0 0 0 0 0 0 0 0 0 0 119 147 121 275 536 672 1019 1132 991 733 497 461 367 295 183 237 314 180 53 8 6 8 0 0 0 0 0 0 0 0 0 0
0 0 0 0 0 0 0 0 0 0 0 0 0 0 0 0 0 38 150 126 157 268 594 919 1010 968 879 554 522 478 483 445 307 316 351 113 14 1 0 0 0 0 0 0 0 0 0 0 0
0 0 0 0 0 0 0 0 0 0 0 0 0 0 0 0 19 179 234 176 244 283 478 833 955 943 988 630 543 570 643 654 479 334 212 113 47 31 13 0 0 0 0 0 0 0 0 0 0
0 0 0 0 0 0 0 0 0 0 0 0 0 0 0 0 0 123 257 320 383 379 443 808 968 1045 1053 950 648 541 545 654 546 505 367 116 38 12 2 0 0 0 0 0 0 0 0 0 0
0 0 0 0 0 0 0 0 0 0 0 0 0 0 0 0 0 0 245 474 640 607 622 763 992 1011 1123 935 869 638 520 549 553 615 515 261 37 0 2 1 0 0 0 0 0 0 0 0 0
0 0 0 0 0 0 0 0 0 0 0 0 0 0 0 0 0 0 1 187 767 912 795 911 848 945 975 967 855 828 684 664 708 664 620 403 138 14 0 0 0 0 0 0 0 0 4 24 33
0 0 0 0 0 0 0 0 0 0 0 0 0 0 0 0 0 0 0 0 466 887 984 990 775 885 832 874 840 799 828 919 823 806 760 569 377 99 12 5 0 0 0 2 40 55 61 94 140
0 0 0 0 0 0 0 0 0 0 0 0 0 0 0 0 0 0 0 0 114 655 748 966 1101 934 919 891 910 823 799 817 661 1027 851 783 686 403 128 10 1 0 1 20 101 147 188 280 365
0 0 0 0 0 0 0 0 0 0 0 0 0 0 0 0 0 0 0 0 1 230 488 776 1098 1112 927 910 960 873 755 605 760 699 768 819 857 681 395 189 39 23 23 30 195 287 297 430 394
0 0 0 0 0 0 0 0 0 0 0 0 0 0 0 0 0 0 0 0 0 69 414 679 895 1128 1075 926 986 801 751 620 362 373 536 718 769 810 607 365 185 126 37 24 169 344 432 403 394
0 0 0 0 0 0 0 0 0 0 0 0 0 0 0 0 0 0 0 0 0 0 138 444 677 889 1042 993 983 855 754 626 499 477 355 362 427 467 481 498 333 170 76 17 214 478 576 638 395
0 0 0 0 0 0 0 0 0 0 0 0 0 0 0 0 0 0 0 0 0 0 42 312 572 800 962 1153 1135 1081 843 709 605 421 506 533 509 514 517 465 415 351 157 152 270 485 713 604 421
0 0 0 0 0 0 0 0 0 0 0 0 0 0 0 0 0 0 0 0 0 0 66 307 608 1044 1248 1298 1283 1165 1136 915 533 507 490 499 368 448 619 554 525 660 576 516 802 836 741 713 512
0 0 0 0 0 0 0 0 0 0 0 0 0 0 0 0 0 0 0 0 0 0 143 643 1096 1392 1655 1664 1535 1469 1410 1169 1027 842 827 761 589 792 889 347 61 155 650 765 825 757 513 349 178
0 0 0 0 0 0 0 0 0 0 0 0 0 0 0 0 0 0 0 0 0 0 26 181 804 1240 1529 1981 1957 1791 1234 1182 912 875 830 766 828 579 616 769 656 219 374 193 464 390 231 63 109
0 0 0 0 0 0 0 0 0 0 0 0 0 0 0 0 0 0 0 0 0 0 0 0 217 309 417 586 779 923 810 741 754 762 720 571 543 514 581 511 573 499 448 497 332 311 80 2 0
0 0 0 0 0 0 0 0 0 0 0 0 0 0 0 0 0 0 0 0 0 0 0 0 10 5 0 0 0 0 0 0 0 46 122 198 335 433 552 618 650 664 635 454 307 233 140 71 7
0 0 0 0 0 0 0 0 0 0 0 0 0 0 0 0 0 0 0 0 0 0 0 0 0 0 0 0 0 0 0 0 0 0 0 0 11 79 177 179 272 552 571 580 590 526 333 219 67
0 0 0 25 5 0 0 0 0 0 0 0 0 0 0 0 0 0 0 0 0 0 0 0 0 0 0 0 0 0 0 0 0 0 0 0 0 0 15 151 176 123 129 307 460 559 662 568 441
2 10 7 17 4 1 0 0 0 0 0 0 0 0 0 0 0 0 0 0 0 0 0 0 0 0 0 0 0 0 0 0 0 0 0 0 0 0 0 0 0 0 18 85 181 305 442 417 400
0 0 4 3 4 3 6 0 0 0 0 0 0 0 0 0 0 0 0 0 0 0 0 0 0 0 0 0 0 0 0 0 0 0 0 0 0 0 0 0 0 0 0 4 9 39 98 141 150
0 0 0 0 0 0 5 0 0 0 0 0 0 0 0 0 0 0 0 0 0 0 0 0 0 0 0 0 0 0 0 0 0 0 0 0 0 0 0 0 0 0 0 0 0 0 0 0 0

GFSSGP_con_mlcape_084.txt.gz
CAPE
0 0 0 0 0 0 0 0 0 0 0 0 0 1 0 18 64 231 752 421 42 444 1088 1058 789 946 1134 1097 1048 921 755 427 172 127 139 109 226 218 237 426 535 579 351 42 0 0 0 0 0
0 0 0 0 0 0 0 0 0 0 0 0 0 0 4 10 33 680 653 353 313 784 1395 1107 883 960 1039 1174 1275 1140 837 596 237 121 121 161 148 123 182 375 412 307 102 0 0 0 0 0 0
0 0 0 0 0 0 0 0 0 0 0 0 0 0 0 2 0 507 726 283 454 989 1322 1333 908 1112 1314 1363 1448 1288 1003 694 297 169 256 232 99 102 170 308 286 189 0 0 0 0 0 0 0
0 0 0 0 0 0 0 0 0 0 0 0 0 0 0 0 0 165 494 380 639 883 1064 1522 795 867 1207 1520 1552 1434 1293 797 429 299 389 254 162 112 123 247 267 54 0 0 0 0 0 0 0
0 0 0 0 0 0 0 0 0 0 0 0 0 0 0 0 888 1083 482 576 525 672 808 1644 829 657 871 1203 1297 1224 1019 748 510 549 529 333 237 156 180 214 103 33 0 0 0 0 0 0 0
0 0 0 0 0 0 0 0 0 0 0 0 0 0 0 0 2 1184 824 675 551 618 714 1278 899 577 631 849 1025 1007 873 726 747 821 628 352 237 187 185 142 63 18 0 0 0 0 0 0 0
0 0 0 0 0 0 0 0 0 0 0 0 0 0 0 0 0 244 1315 1210 577 444 683 1232 902 676 518 536 761 902 901 829 832 796 601 382 248 254 201 106 42 17 0 0 0 0 0 0 0
0 0 0 0 0 0 0 0 0 0 0 0 0 0 0 0 0 20 1041 1171 679 412 474 865 1016 744 435 355 421 536 680 734 638 624 521 395 294 286 141 67 27 12 0 0 0 0 0 0 0
0 0 0 0 0 0 0 0 0 0 0 0 0 0 0 0 0 0 330 1184 796 382 284 689 1012 1072 593 332 441 473 502 550 530 421 381 307 178 219 156 10 23 3 0 0 0 0 0 0 0
0 0 0 0 0 0 0 0 0 0 0 0 0 0 0 0 0 0 13 264 1045 605 323 672 1105 1217 872 433 543 347 317 300 303 288 432 309 197 100 11 4 87 25 3 0 0 0 0 0 0
0 0 0 0 0 0 0 0 0 0 0 0 0 0 0 0 0 0 0 15 378 923 531 614 1170 1538 1142 620 703 560 425 337 318 282 387 421 254 155 51 39 30 3 1 0 0 0 0 0 0
0 0 0 0 0 0 0 0 0 0 0 0 0 0 0 0 0 0 0 0 125 610 681 672 954 1637 1593 987 838 793 561 429 295 327 559 660 514 239 88 13 1 0 0 0 0 0 0 0 29
0 0 0 0 0 0 0 0 0 0 0 0 0 0 0 0 0 0 0 0 9 293 728 918 1011 1683 1648 1501 977 988 784 589 364 320 786 829 628 288 126 55 34 18 11 7 3 0 0 81 304
0 0 0 0 0 0 0 0 0 0 0 0 0 0 0 0 0 0 0 0 0 21 568 1215 1271 1616 1808 1698 1508 1465 1251 808 673 300 417 876 688 436 189 201 170 37 20 6 0 0 0 274 436
0 0 0 0 0 0 0 0 0 0 0 0 0 0 0 0 0 0 0 0 0 0 458 1058 1606 1717 2025 1833 1862 1685 1306 1079 958 594 663 749 696 539 378 266 166 60 35 44 39 34 40 237 412
0 0 0 0 0 0 0 0 0 0 0 0 0 0 0 0 0 0 0 0 0 0 308 1430 1801 1869 2260 2282 1880 1936 1517 1399 1155 980 871 968 897 608 519 257 263 151 139 93 11 15 150 469 439
0 0 0 0 0 0 0 0 0 0 0 0 0 0 0 0 0 0 0 0 0 0 11 762 2124 2101 2184 2502 2255 2166 1955 1612 1230 1154 1042 1337 1291 925 670 313 264 421 218 136 93 108 247 275 558
0 0 0 0 0 0 0 0 0 0 0 0 0 0 0 0 0 0 0 0 0 0 0 17 1012 2174 2549 2679 2637 2213 1955 1922 1706 1517 1405 1383 1557 1188 1227 612 584 745 363 150 173 170 179 319 347
0 0 0 0 0 0 0 0 0 0 0 0 0 0 0 0 0 0 0 0 0 0 0 0 935 2009 2827 2793 2621 2225 2053 1969 1831 1688 1805 1711 1681 1481 1553 1229 1127 1220 685 554 656 565 467 178 477
0 0 0 0 0 0 0 0 0 0 0 0 0 0 0 0 0 0 0 0 0 0 0 0 305 1634 2679 2691 2521 2446 2209 2025 1930 1785 1781 1760 1770 1719 1780 1847 1535 1674 1110 1355 1282 1008 464 308 465
0 0 0 0 0 0 0 0 0 0 0 0 0 0 0 0 0 0 0 0 0 0 0 0 27 914 2509 2692 2720 2508 2268 2082 2051 1986 1906 1926 1845 1727 1765 2161 1961 1949 1761 1199 1708 1418 856 238 787
0 0 0 0 0 0 0 0 0 0 0 0 0 0 0 0 0 0 0 0 0 0 0 0 97 395 1387 2631 2432 2515 2226 2071 1945 2057 1986 1975 1838 1633 1654 1956 1809 1717 1467 1226 1392 1250 972 886 1012
0 0 0 0 0 0 0 0 0 0 0 0 0 0 0 0 0 0 0 0 0 0 0 0 106 420 1036 2104 2560 2465 2478 2105 2078 2176 2341 2363 2202 1918 1653 1760 1781 1864 1744 1858 1808 1727 1249 1090 583
0 0 0 0 0 0 0 0 0 0 0 0 0 0 0 0 0 0 0 0 0 0 0 0 16 569 1008 1803 2554 2739 2639 2293 2081 2380 2354 2335 2096 2113 1902 1748 1743 1802 1421 1428 1565 1168 778 420 193
0 0 0 0 0 0 0 0 0 0 1 0 0 1 0 0 0 0 0 0 0 0 3 4 0 354 1328 1825 2180 2457 2749 2823 2853 2855 2752 2313 2044 2163 2344 2165 2030 2012 1891 1431 1278 773 442 317 185
6 0 0 0 0 0 0 0 0 0 1 27 6 6 5 5 8 4 11 16 17 0 3 110 27 111 842 2309 2704 2798 2951 3165 3138 3015 2519 2368 1648 1900 2388 3007 2691 2478 1781 1253 833 697 429 140 120
5 0 1 0 0 0 0 0 0 1 17 40 29 43 45 37 33 29 60 53 63 70 52 119 325 193 441 1549 2631 2884 3542 3557 3059 2824 2988 2393 2260 1916 2308 2629 2665 2555 2347 2139 1843 1294 794 862 534
0 2 0 2 0 0 0 0 0 10 15 8 5 6 43 13 5 8 13 16 73 78 125 90 382 476 475 1041 1688 2268 2433 2100 1452 1330 1379 688 747 745 860 1337 1766 1945 1976 2169 2224 2146 1772 1470 1080
5 0 2 2 4 0 0 0 0 0 3 25 26 0 49 42 2 0 0 0 0 1 23 163 121 439 562 768 1022 985 863 714 684 678 632 584 633 625 527 744 1034 1215 1339 1750 2004 2101 1876 1645 1471
0 0 2 14 0 7 3 0 0 0 12 58 40 54 118 73 2 0 0 0 0 0 0 32 143 71 281 383 622 636 742 634 676 570 530 547 614 529 420 461 471 488 728 1100 1198 1188 1084 1123 1004

GFSSGP_con_mlcape_087.txt.gz
CAPE
0 0 0 0 0 0 0 0 17 0 0 0 0 0 5 3 229 991 893 431 197 1286 1224 1362 1413 1186 954 537 318 277 168 204 246 169 179 283 237 367 556 566 600 576 356 85 0 0 0 0 0
0 0 0 0 0 0 0 9 0 0 0 0 0 0 0 67 10 806 1079 210 304 1197 1219 1031 1247 1072 919 768 368 390 331 282 264 236 231 272 257 290 413 527 624 519 187 0 0 0 0 0 0
0 0 0 0 0 0 1 0 0 0 0 0 0 0 0 0 0 588 954 265 520 1076 1002 1276 1123 1089 1008 1105 968 793 657 485 321 204 227 303 301 293 291 400 455 310 21 0 0 0 0 0 10
0 0 0 0 0 0 0 0 0 0 0 0 0 0 0 290 388 727 609 447 771 1072 855 1707 957 1075 1059 1102 1263 1146 944 742 434 322 278 313 291 229 242 343 308 169 0 0 0 0 0 0 0
0 0 0 0 0 0 0 0 0 0 0 0 0 0 0 11 909 859 432 624 644 751 1011 1885 994 1017 1041 1026 1143 1450 1260 1017 638 390 339 358 262 166 229 230 191 58 0 0 0 0 0 0 0
0 0 0 0 0 0 0 0 0 0 0 0 0 0 0 0 155 932 635 644 641 641 837 1904 1153 1127 1160 1285 1318 1362 1520 1201 778 503 429 464 278 215 217 220 152 43 0 0 0 0 0 0 0
0 0 0 0 0 0 0 0 0 0 0 0 0 0 0 0 0 431 882 834 632 634 691 1551 1075 1214 1192 1279 1296 1379 1463 1189 735 498 584 580 350 243 221 192 112 34 0 0 0 0 0 0 0
0 0 0 0 0 0 0 0 0 0 0 0 0 0 0 0 0 2 784 842 689 566 602 1011 797 754 824 1207 1339 1214 1092 932 759 545 682 586 400 315 242 151 65 21 0 0 0 0 0 0 0
0 0 0 0 0 0 0 0 0 0 0 0 0 0 0 0 0 0 129 714 609 444 466 860 785 744 505 417 983 1082 1083 960 835 881 807 477 310 368 357 50 60 0 0 0 0 0 0 0 0
0 0 0 0 0 0 0 0 0 0 0 0 0 0 0 0 0 0 0 121 645 513 412 565 1027 1024 719 298 597 603 850 999 1064 967 1029 587 246 235 101 37 33 14 0 0 0 0 0 0 0
0 0 0 0 0 0 0 0 0 0 0 0 0 0 0 0 0 0 0 0 69 593 516 373 1153 1352 1093 580 591 616 336 389 515 534 669 583 258 237 126 88 46 42 0 0 0 0 0 0 0
0 0 0 0 0 0 0 0 0 0 0 0 0 0 0 0 0 0 0 0 0 95 779 669 912 1734 1723 984 602 878 444 491 321 285 432 570 449 403 216 39 127 22 0 0 0 0 0 0 0
0 0 0 0 0 0 0 0 0 0 0 0 0 0 0 0 0 0 0 0 0 0 378 1017 953 1888 2145 1932 964 1038 792 634 466 287 445 511 509 497 301 135 83 34 0 7 0 0 0 0 3
0 0 0 0 0 0 0 0 0 0 0 0 0 0 0 0 0 0 0 0 0 0 71 564 1078 1532 2339 2187 1942 1616 1578 837 708 392 414 747 891 824 398 266 106 60 52 18 32 21 5 3 129
0 0 0 0 0 0 0 0 0 0 0 0 0 0 0 0 0 0 0 0 0 0 0 12 958 1673 2475 2634 2445 1938 1402 1235 990 609 653 1103 1392 1223 587 310 238 154 167 151 89 57 56 86 240
0 0 0 0 0 0 0 0 0 0 0 0 0 0 0 0 0 0 0 0 0 0 0 97 444 1470 2485 2672 2642 2136 2012 1661 1481 1145 737 1281 1482 1328 1029 410 387 296 203 150 157 117 34 54 158
0 0 0 0 0 0 0 0 0 0 0 0 0 0 0 0 0 0 0 0 0 0 0 0 883 1487 2228 3008 2994 2464 2340 1971 1704 1516 1080 1132 1287 1196 1090 725 461 488 306 237 224 85 83 144 413
0 0 0 0 0 0 0 0 0 0 0 0 0 0 0 0 0 0 0 0 0 0 0 0 0 1253 2735 2652 2990 2819 2493 2586 2183 1869 1636 1504 1373 1316 1056 883 517 639 428 373 298 190 164 208 233
0 0 0 0 0 0 0 0 0 0 0 0 0 0 0 0 0 0 0 0 0 0 0 0 27 0 2238 2534 2606 2857 2597 2531 2605 2311 2041 1849 2079 1925 1601 1267 911 871 664 467 408 406 389 292 380
0 0 0 0 0 0 0 0 0 0 0 0 0 0 0 0 0 0 0 0 0 0 0 0 0 211 1224 2664 2900 2954 3009 2977 2731 2632 2228 2157 2319 2390 2213 1936 1188 1182 1057 1027 1000 667 619 497 435
0 0 0 0 0 0 0 0 0 0 0 0 0 0 0 0 0 0 0 0 0 0 0 0 0 38 400 2411 2656 3152 3307 2947 2633 2604 2725 2747 2603 2468 2347 2289 2108 1768 1676 1364 1725 1806 1268 802 622
0 0 0 0 0 0 0 0 0 0 0 0 0 0 0 0 0 0 0 0 0 0 0 0 0 1 208 618 2065 2327 2521 2723 2630 2673 2579 2657 2715 2489 2436 2512 2683 2454 2510 2020 2251 2330 2164 1634 878
0 0 0 0 0 0 0 0 0 0 0 0 0 0 0 0 0 0 0 0 0 0 0 0 0 0 62 587 1350 2157 2316 2512 2578 2874 2650 2752 2773 2644 2525 2525 2797 2828 2504 2220 1883 2192 1966 1742 1048
0 0 0 0 0 0 0 1 1 0 0 0 0 0 0 0 0 0 1 4 7 8 8 2 0 0 58 407 907 1965 2075 2377 2515 2549 2500 2758 2739 3016 2672 2512 2624 2649 2356 2075 2099 2199 2024 1555 1644
0 0 0 2 4 0 0 0 0 0 0 0 0 0 9 17 3 4 24 29 31 57 59 12 0 16 24 176 967 1609 2207 2515 2840 2335 2162 2699 2895 2851 2888 2712 2661 2502 2722 2595 2691 2558 2164 1862 1254
1 9 17 7 7 5 0 0 0 0 0 0 11 37 33 36 40 40 56 72 76 108 103 70 37 72 169 103 627 1711 2064 2621 2727 2829 2349 2621 2568 2540 2918 2846 3147 2867 2802 2570 2537 2190 2090 1659 1377
0 0 0 3 5 0 0 0 0 0 1 7 10 23 34 39 46 54 48 67 92 66 123 91 117 102 312 349 539 1694 1985 1922 2241 2541 2412 2766 2476 1909 2557 2923 3242 3100 2992 2800 2610 2328 1998 1783 1565
0 0 1 5 1 0 0 0 0 4 0 0 2 21 22 14 40 75 74 85 87 71 50 49 108 214 257 532 556 919 1918 2248 2273 2392 2018 1659 1799 1804 2996 1987 2931 3207 3263 3004 2772 2239 1900 1691 1362
1 0 0 0 7 6 2 0 0 0 0 2 11 30 35 41 39 54 105 108 85 60 53 15 69 230 242 443 660 967 1442 1740 1796 1706 992 1003 1868 2476 2397 2179 2341 2774 2807 2877 2516 2463 2077 1963 2158
0 0 0 5 7 6 13 0 5 0 0 7 13 30 37 24 24 44 77 81 63 41 20 5 0 57 162 226 416 815 1038 1162 1140 1094 6 670 1415 1808 1435 1469 1403 1444 1532 1826 2031 2116 2043 1996 1968

GFSSGP_con_mlcape_093.txt.gz
CAPE
0 0 0 0 0 0 0 0 0 0 0 0 0 0 366 806 889 484 1246 1454 1008 1022 1602 1414 959 818 567 197 75 12 11 54 43 72 115 163 178 154 178 222 310 362 305 94 0 0 0 0 0
0 0 0 0 0 0 0 0 4 0 0 0 0 5 122 826 562 855 1352 1266 758 1012 1307 1425 1055 862 461 190 98 25 28 99 38 101 127 228 261 220 199 249 231 117 37 0 0 0 0 0 0
0 0 0 0 0 0 0 0 5 0 0 0 0 129 247 419 1094 734 1497 1559 786 997 1611 1522 1116 822 399 174 21 35 67 185 89 130 170 266 367 380 426 356 184 84 0 0 0 0 0 0 0
0 0 0 0 0 0 0 0 0 1 0 0 1 292 510 680 998 954 1567 1588 731 1276 1689 1737 1226 724 427 205 65 57 173 204 166 172 221 192 280 356 366 326 217 33 0 0 0 0 0 0 0
0 0 0 0 0 0 0 0 0 0 0 0 59 192 654 649 445 730 1527 1469 898 1527 1543 1588 1361 993 620 321 178 101 215 316 129 173 251 247 205 218 232 119 48 0 0 0 0 0 0 0 0
0 0 0 0 0 0 0 0 0 0 0 0 13 24 426 618 503 480 1109 1228 974 1258 1406 1165 1331 1144 869 546 413 367 322 378 374 164 262 307 215 195 209 173 52 0 0 0 0 0 0 0 0
0 0 0 0 0 0 0 0 0 0 0 0 0 0 0 0 626 642 579 994 1400 1422 1289 823 1141 1284 1287 1116 886 761 671 609 432 390 176 248 201 192 187 126 39 0 0 0 0 0 0 0 0
0 0 0 0 0 0 0 0 0 0 0 0 0 0 0 0 0 531 571 631 1501 1836 1518 813 820 1165 1273 1372 1328 1150 1035 957 759 501 369 268 155 153 131 88 57 0 0 0 0 0 0 0 0
0 0 0 0 0 0 0 0 0 0 0 0 0 0 0 0 0 0 170 388 1604 2061 1748 958 602 809 1094 1208 1402 1380 1313 1260 1157 847 513 460 368 256 182 97 62 18 0 0 0 0 0 0 0
0 0 0 0 0 0 0 0 0 0 0 0 0 0 0 0 0 0 0 0 60 1878 1721 1185 658 483 763 1306 1350 1441 1491 1427 1309 1098 775 429 294 250 195 103 106 27 0 0 0 0 0 0 0
0 0 0 0 0 0 0 0 0 0 0 0 0 0 0 0 0 0 0 0 0 353 1475 1059 833 553 507 937 1162 977 1223 1288 1246 1041 726 411 420 509 349 180 180 83 5 0 0 0 0 0 0
0 0 0 0 0 0 0 0 0 0 0 0 0 0 0 0 0 0 0 0 0 0 287 1019 1019 793 600 591 1139 1007 908 983 1004 1005 878 507 499 583 458 299 174 72 27 0 0 0 0 0 0
0 0 0 0 0 0 0 0 0 0 0 0 0 0 0 0 0 0 0 0 0 0 595 1115 1170 820 571 421 1125 1001 893 884 998 1092 1203 1092 711 650 531 364 210 101 42 0 0 0 0 0 0
0 0 0 0 0 0 0 0 0 0 0 0 0 0 0 0 0 0 0 0 0 0 351 1227 772 102 43 393 1116 1029 735 836 847 947 1106 1439 1056 718 444 376 237 147 82 38 0 0 0 0 0
0 0 0 0 0 0 0 0 0 0 0 0 0 0 0 0 0 0 0 0 0 0 1 459 334 3 99 1391 1616 1467 948 711 762 676 878 924 1188 660 740 508 328 263 111 45 0 0 0 0 0
0 0 0 0 0 0 0 0 0 0 0 0 0 0 0 0 0 0 0 0 0 0 0 0 0 897 1339 2007 1773 1718 2056 1220 874 749 697 782 772 851 559 684 547 311 284 79 1 0 0 67 39
0 0 0 0 0 0 0 0 0 0 0 0 0 0 0 0 0 0 0 0 0 0 0 0 0 0 809 2280 2298 2180 1832 1920 1575 1163 852 877 821 781 793 760 668 558 242 83 59 7 0 79 60
0 0 0 0 0 0 0 0 0 0 0 0 0 0 0 0 0 0 0 0 0 0 0 0 0 0 0 0 873 2560 2353 1842 2022 1749 1460 964 861 783 912 1091 907 580 404 188 205 248 160 142 59
0 0 0 0 0 0 0 0 0 0 0 0 0 0 0 0 0 0 0 0 0 0 0 0 0 0 0 0 0 1580 1808 1992 2059 1872 1788 1527 1110 992 823 1271 1076 796 484 380 272 237 188 137 176
0 0 0 0 0 0 0 0 0 0 0 0 0 0 0 0 0 0 0 0 0 0 0 0 0 0 0 45 23 109 463 1568 2218 2180 1955 1708 1484 1333 1079 1097 1273 1054 807 473 426 374 319 248 180
0 0 0 0 0 0 0 0 0 0 0 0 0 0 0 0 0 0 0 0 0 0 0 0 0 0 0 0 0 0 5 318 1256 1384 1638 1828 1824 1688 1561 1416 1134 1172 966 720 544 524 425 338 323
0 0 0 0 0 0 0 0 0 0 0 0 0 0 0 0 0 0 0 0 0 0 0 0 0 0 0 0 0 0 0 0 5 255 1179 1570 1722 1570 1559 1548 1400 1052 1114 866 675 556 501 431 387
0 0 0 0 0 0 0 0 0 0 0 0 0 0 0 0 0 0 0 0 0 0 0 0 0 0 0 0 0 0 0 0 0 0 382 1067 1301 1606 1520 1651 1403 1280 1017 980 780 519 654 452 338
0 0 0 0 0 0 0 0 0 0 0 0 0 0 0 0 0 0 0 0 0 0 0 0 0 0 0 0 0 0 0 0 0 0 0 515 1161 1445 1615 1516 1651 1536 1223 992 867 734 627 720 558
0 0 0 0 0 0 0 0 0 0 0 0 0 0 0 0 0 0 0 0 0 0 0 0 0 0 0 0 0 0 0 0 43 4 34 385 1065 1415 1310 1575 1443 1618 1703 1274 1195 875 892 742 851
1 0 8 0 0 0 0 0 0 0 0 0 0 0 0 0 0 0 0 0 0 0 0 0 0 0 0 0 0 5 5 54 88 143 266 273 568 1456 1652 1602 1561 1422 1498 1555 1221 1204 1169 1050 1296
0 0 0 0 0 0 0 0 0 0 0 0 0 0 0 0 0 0 0 0 0 0 0 0 0 0 0 0 0 0 0 69 95 77 140 290 501 849 1395 1129 950 1072 1226 998 844 4 6 109 1206
0 0 0 0 0 0 0 0 0 0 0 0 0 0 0 0 0 0 0 0 0 0 0 0 0 4 21 0 0 0 0 9 39 112 74 164 455 669 632 575 480 349 226 201 190 18 10 0 33
0 0 0 0 0 0 0 0 0 0 0 0 0 0 0 0 0 0 1 0 0 0 0 0 0 4 5 1 0 0 0 0 1 17 38 97 414 405 295 338 345 331 113 37 0 0 0 0 0
5 0 0 0 0 2 3 0 0 0 0 0 0 0 0 0 0 0 0 0 0 0 0 0 0 0 0 0 0 0 0 0 0 5 0 44 137 186 265 360 375 215 128 35 4 0 0 0 0